Wetterdaten: Mittwoch, 01.08.2018
Datum Zeit Temp. Aussen Temp. o. S. +5cm Feuchte Auss Luftdruck Regen Sonnenschein Regendauer Solar Windben Empfang
01.08.2018 00:00 22,4 C 21,1 C 21,1 C 65 % 1017,8 hPa 0,0 l/m 0 min 0 min 0 W/m 9,0 km/h (2 Bft) 97,83 %
01.08.2018 00:02 22,4 C 21,1 C 21,1 C 65 % 1017,8 hPa 0,0 l/m 0 min 0 min 0 W/m 6,8 km/h (2 Bft) 97,06 %
01.08.2018 00:04 22,4 C 21,1 C 21,1 C 65 % 1017,8 hPa 0,0 l/m 0 min 0 min 0 W/m 6,8 km/h (2 Bft) 93,62 %
01.08.2018 00:07 22,3 C 20,6 C 21,1 C 65 % 1017,8 hPa 0,0 l/m 0 min 0 min 0 W/m 6,8 km/h (2 Bft) 93,62 %
01.08.2018 00:08 22,3 C 20,6 C 21,1 C 65 % 1017,8 hPa 0,0 l/m 0 min 0 min 0 W/m 6,8 km/h (2 Bft) 93,62 %
01.08.2018 00:10 22,3 C 20,6 C 21,1 C 65 % 1017,8 hPa 0,0 l/m 0 min 0 min 0 W/m 6,8 km/h (2 Bft) 93,62 %
01.08.2018 00:12 22,2 C 20,6 C 21,1 C 65 % 1017,8 hPa 0,0 l/m 0 min 0 min 0 W/m 6,8 km/h (2 Bft) 93,62 %
01.08.2018 00:14 22,2 C 20,6 C 21,1 C 65 % 1017,9 hPa 0,0 l/m 0 min 0 min 0 W/m 6,8 km/h (2 Bft) 96,51 %
01.08.2018 00:16 22,2 C 20,6 C 21,1 C 65 % 1018,0 hPa 0,0 l/m 0 min 0 min 0 W/m 4,5 km/h (1 Bft) 95,74 %
01.08.2018 00:18 22,1 C 20,6 C 21,1 C 65 % 1018,0 hPa 0,0 l/m 0 min 0 min 0 W/m 9,0 km/h (2 Bft) 97,92 %
01.08.2018 00:20 22,1 C 20,6 C 20,6 C 65 % 1018,0 hPa 0,0 l/m 0 min 0 min 0 W/m 4,5 km/h (1 Bft) 96,55 %
01.08.2018 00:22 22,1 C 20,6 C 20,6 C 66 % 1018,0 hPa 0,0 l/m 0 min 0 min 0 W/m 6,8 km/h (2 Bft) 95,74 %
01.08.2018 00:24 22,0 C 20,6 C 20,6 C 66 % 1018,0 hPa 0,0 l/m 0 min 0 min 0 W/m 4,5 km/h (1 Bft) 97,14 %
01.08.2018 00:26 22,0 C 20,6 C 20,6 C 66 % 1018,0 hPa 0,0 l/m 0 min 0 min 0 W/m 6,8 km/h (2 Bft) 96,00 %
01.08.2018 00:28 21,9 C 20,6 C 20,6 C 66 % 1018,0 hPa 0,0 l/m 0 min 0 min 0 W/m 6,8 km/h (2 Bft) 97,87 %
01.08.2018 00:30 21,9 C 20,6 C 20,6 C 66 % 1018,0 hPa 0,0 l/m 0 min 0 min 0 W/m 4,5 km/h (1 Bft) 95,74 %
01.08.2018 00:32 21,8 C 20,0 C 20,6 C 66 % 1018,0 hPa 0,0 l/m 0 min 0 min 0 W/m 9,0 km/h (2 Bft) 97,83 %
01.08.2018 00:34 21,8 C 20,0 C 20,6 C 66 % 1017,9 hPa 0,0 l/m 0 min 0 min 0 W/m 6,8 km/h (2 Bft) 95,74 %
01.08.2018 00:36 21,7 C 20,0 C 20,6 C 66 % 1018,0 hPa 0,0 l/m 0 min 0 min 0 W/m 2,3 km/h (1 Bft) 93,62 %
01.08.2018 00:38 21,7 C 20,0 C 20,6 C 66 % 1018,0 hPa 0,0 l/m 0 min 0 min 0 W/m 4,5 km/h (1 Bft) 95,74 %
01.08.2018 00:40 21,7 C 20,0 C 20,6 C 66 % 1018,0 hPa 0,0 l/m 0 min 0 min 0 W/m 6,8 km/h (2 Bft) 93,62 %
01.08.2018 00:42 21,6 C 20,0 C 20,6 C 67 % 1018,0 hPa 0,0 l/m 0 min 0 min 0 W/m 4,5 km/h (1 Bft) 95,74 %
01.08.2018 00:44 21,6 C 20,0 C 20,6 C 67 % 1017,9 hPa 0,0 l/m 0 min 0 min 0 W/m 6,8 km/h (2 Bft) 93,48 %
01.08.2018 00:46 21,6 C 20,0 C 20,6 C 67 % 1018,0 hPa 0,0 l/m 0 min 0 min 0 W/m 4,5 km/h (1 Bft) 97,87 %
01.08.2018 00:48 21,5 C 20,0 C 20,6 C 67 % 1017,9 hPa 0,0 l/m 0 min 0 min 0 W/m 4,5 km/h (1 Bft) 95,74 %
01.08.2018 00:50 21,5 C 20,0 C 20,6 C 67 % 1018,0 hPa 0,0 l/m 0 min 0 min 0 W/m 4,5 km/h (1 Bft) 96,67 %
01.08.2018 00:52 21,4 C 20,0 C 20,6 C 67 % 1018,0 hPa 0,0 l/m 0 min 0 min 0 W/m 2,3 km/h (1 Bft) 95,65 %
01.08.2018 00:54 21,4 C 20,0 C 20,0 C 67 % 1018,0 hPa 0,0 l/m 0 min 0 min 0 W/m 2,3 km/h (1 Bft) 94,29 %
01.08.2018 00:56 21,4 C 20,0 C 20,0 C 67 % 1018,0 hPa 0,0 l/m 0 min 0 min 0 W/m 4,5 km/h (1 Bft) 95,74 %
01.08.2018 00:58 21,3 C 20,0 C 20,0 C 67 % 1017,9 hPa 0,0 l/m 0 min 0 min 0 W/m 6,8 km/h (2 Bft) 93,62 %
01.08.2018 01:00 21,3 C 20,0 C 20,6 C 68 % 1017,9 hPa 0,0 l/m 0 min 0 min 0 W/m 4,5 km/h (1 Bft) 95,74 %
01.08.2018 01:02 21,3 C 20,0 C 20,0 C 68 % 1017,9 hPa 0,0 l/m 0 min 0 min 0 W/m 4,5 km/h (1 Bft) 93,62 %
01.08.2018 01:04 21,2 C 20,0 C 20,0 C 68 % 1018,0 hPa 0,0 l/m 0 min 0 min 0 W/m 2,3 km/h (1 Bft) 95,74 %
01.08.2018 01:06 21,2 C 20,0 C 20,0 C 68 % 1018,0 hPa 0,0 l/m 0 min 0 min 0 W/m 2,3 km/h (1 Bft) 95,65 %
01.08.2018 01:08 21,2 C 20,0 C 20,0 C 68 % 1018,0 hPa 0,0 l/m 0 min 0 min 0 W/m 2,3 km/h (1 Bft) 95,74 %
01.08.2018 01:10 21,2 C 20,0 C 20,0 C 68 % 1018,0 hPa 0,0 l/m 0 min 0 min 0 W/m 4,5 km/h (1 Bft) 97,87 %
01.08.2018 01:12 21,1 C 20,0 C 20,0 C 68 % 1018,0 hPa 0,0 l/m 0 min 0 min 0 W/m 4,5 km/h (1 Bft) 97,87 %
01.08.2018 01:14 21,1 C 20,0 C 20,0 C 68 % 1018,0 hPa 0,0 l/m 0 min 0 min 0 W/m 9,0 km/h (2 Bft) 97,87 %
01.08.2018 01:16 21,1 C 20,0 C 20,0 C 68 % 1018,0 hPa 0,0 l/m 0 min 0 min 0 W/m 6,8 km/h (2 Bft) 95,74 %
01.08.2018 01:18 21,1 C 20,0 C 20,0 C 68 % 1018,1 hPa 0,0 l/m 0 min 0 min 0 W/m 4,5 km/h (1 Bft) 97,87 %
01.08.2018 01:20 21,1 C 20,0 C 20,0 C 68 % 1018,1 hPa 0,0 l/m 0 min 0 min 0 W/m 4,5 km/h (1 Bft) 98,28 %
01.08.2018 01:22 21,0 C 20,0 C 20,0 C 69 % 1018,0 hPa 0,0 l/m 0 min 0 min 0 W/m 4,5 km/h (1 Bft) 97,87 %
01.08.2018 01:24 21,0 C 20,0 C 20,0 C 69 % 1018,0 hPa 0,0 l/m 0 min 0 min 0 W/m 2,3 km/h (1 Bft) 97,14 %
01.08.2018 01:26 21,0 C 20,0 C 20,0 C 69 % 1018,0 hPa 0,0 l/m 0 min 0 min 0 W/m 6,8 km/h (2 Bft) 100,00 %
01.08.2018 01:28 21,0 C 20,0 C 20,0 C 69 % 1018,0 hPa 0,0 l/m 0 min 0 min 0 W/m 6,8 km/h (2 Bft) 100,00 %
01.08.2018 01:30 20,9 C 20,0 C 20,0 C 69 % 1018,1 hPa 0,0 l/m 0 min 0 min 0 W/m 4,5 km/h (1 Bft) 100,00 %
01.08.2018 01:32 20,9 C 20,0 C 20,0 C 69 % 1018,0 hPa 0,0 l/m 0 min 0 min 0 W/m 9,0 km/h (2 Bft) 97,83 %
01.08.2018 01:34 20,9 C 20,0 C 20,0 C 69 % 1018,0 hPa 0,0 l/m 0 min 0 min 0 W/m 6,8 km/h (2 Bft) 100,00 %
01.08.2018 01:36 20,9 C 20,0 C 20,0 C 69 % 1018,0 hPa 0,0 l/m 0 min 0 min 0 W/m 4,5 km/h (1 Bft) 97,87 %
01.08.2018 01:38 20,9 C 20,0 C 20,0 C 70 % 1018,0 hPa 0,0 l/m 0 min 0 min 0 W/m 4,5 km/h (1 Bft) 100,00 %
01.08.2018 01:40 20,9 C 20,0 C 20,0 C 70 % 1017,9 hPa 0,0 l/m 0 min 0 min 0 W/m 6,8 km/h (2 Bft) 97,87 %
01.08.2018 01:42 20,9 C 20,0 C 20,0 C 70 % 1017,9 hPa 0,0 l/m 0 min 0 min 0 W/m 6,8 km/h (2 Bft) 100,00 %
01.08.2018 01:44 20,9 C 20,0 C 20,0 C 70 % 1017,9 hPa 0,0 l/m 0 min 0 min 0 W/m 4,5 km/h (1 Bft) 100,00 %
01.08.2018 01:46 20,9 C 20,0 C 20,0 C 70 % 1017,9 hPa 0,0 l/m 0 min 0 min 0 W/m 6,8 km/h (2 Bft) 100,00 %
01.08.2018 01:48 20,8 C 20,0 C 20,0 C 70 % 1017,9 hPa 0,0 l/m 0 min 0 min 0 W/m 6,8 km/h (2 Bft) 100,00 %
01.08.2018 01:50 20,8 C 20,0 C 20,0 C 70 % 1018,0 hPa 0,0 l/m 0 min 0 min 0 W/m 11,3 km/h (2 Bft) 100,00 %
01.08.2018 01:52 20,8 C 20,0 C 20,0 C 70 % 1018,0 hPa 0,0 l/m 0 min 0 min 0 W/m 9,0 km/h (2 Bft) 97,87 %
01.08.2018 01:54 20,8 C 20,0 C 20,0 C 70 % 1018,0 hPa 0,0 l/m 0 min 0 min 0 W/m 6,8 km/h (2 Bft) 100,00 %
01.08.2018 01:56 20,8 C 20,0 C 20,0 C 70 % 1018,0 hPa 0,0 l/m 0 min 0 min 0 W/m 9,0 km/h (2 Bft) 100,00 %
01.08.2018 01:58 20,8 C 20,0 C 20,0 C 70 % 1018,0 hPa 0,0 l/m 0 min 0 min 0 W/m 4,5 km/h (1 Bft) 100,00 %
01.08.2018 02:00 20,8 C 20,0 C 20,0 C 70 % 1018,0 hPa 0,0 l/m 0 min 0 min 0 W/m 9,0 km/h (2 Bft) 100,00 %
01.08.2018 02:02 20,8 C 19,4 C 20,0 C 70 % 1018,0 hPa 0,0 l/m 0 min 0 min 0 W/m 2,3 km/h (1 Bft) 100,00 %
01.08.2018 02:04 20,8 C 19,4 C 20,0 C 70 % 1018,0 hPa 0,0 l/m 0 min 0 min 0 W/m 4,5 km/h (1 Bft) 100,00 %
01.08.2018 02:06 20,7 C 19,4 C 20,0 C 70 % 1017,9 hPa 0,0 l/m 0 min 0 min 0 W/m 4,5 km/h (1 Bft) 100,00 %
01.08.2018 02:08 20,7 C 19,4 C 20,0 C 70 % 1018,0 hPa 0,0 l/m 0 min 0 min 0 W/m 4,5 km/h (1 Bft) 100,00 %
01.08.2018 02:10 20,7 C 19,4 C 20,0 C 71 % 1018,0 hPa 0,0 l/m 0 min 0 min 0 W/m 2,3 km/h (1 Bft) 100,00 %
01.08.2018 02:12 20,7 C 19,4 C 20,0 C 71 % 1018,2 hPa 0,0 l/m 0 min 0 min 0 W/m 4,5 km/h (1 Bft) 100,00 %
01.08.2018 02:14 20,7 C 19,4 C 20,0 C 71 % 1018,2 hPa 0,0 l/m 0 min 0 min 0 W/m 2,3 km/h (1 Bft) 100,00 %
01.08.2018 02:16 20,7 C 19,4 C 20,0 C 71 % 1018,2 hPa 0,0 l/m 0 min 0 min 0 W/m 2,3 km/h (1 Bft) 97,83 %
01.08.2018 02:18 20,7 C 19,4 C 20,0 C 71 % 1018,2 hPa 0,0 l/m 0 min 0 min 0 W/m 2,3 km/h (1 Bft) 100,00 %
01.08.2018 02:20 20,7 C 19,4 C 19,4 C 71 % 1018,3 hPa 0,0 l/m 0 min 0 min 0 W/m 6,8 km/h (2 Bft) 100,00 %
01.08.2018 02:22 20,6 C 19,4 C 19,4 C 71 % 1018,2 hPa 0,0 l/m 0 min 0 min 0 W/m 4,5 km/h (1 Bft) 100,00 %
01.08.2018 02:24 20,6 C 19,4 C 19,4 C 71 % 1018,2 hPa 0,0 l/m 0 min 0 min 0 W/m 2,3 km/h (1 Bft) 100,00 %
01.08.2018 02:26 20,6 C 19,4 C 19,4 C 71 % 1018,3 hPa 0,0 l/m 0 min 0 min 0 W/m 4,5 km/h (1 Bft) 100,00 %
01.08.2018 02:28 20,6 C 19,4 C 19,4 C 71 % 1018,2 hPa 0,0 l/m 0 min 0 min 0 W/m 2,3 km/h (1 Bft) 100,00 %
01.08.2018 02:30 20,6 C 19,4 C 19,4 C 71 % 1018,2 hPa 0,0 l/m 0 min 0 min 0 W/m 4,5 km/h (1 Bft) 100,00 %
01.08.2018 02:32 20,6 C 19,4 C 19,4 C 71 % 1018,2 hPa 0,0 l/m 0 min 0 min 0 W/m 0,0 km/h (0 Bft) 100,00 %
01.08.2018 02:34 20,5 C 19,4 C 19,4 C 71 % 1018,1 hPa 0,0 l/m 0 min 0 min 0 W/m 4,5 km/h (1 Bft) 100,00 %
01.08.2018 02:36 20,5 C 18,9 C 19,4 C 71 % 1018,2 hPa 0,0 l/m 0 min 0 min 0 W/m 2,3 km/h (1 Bft) 100,00 %
01.08.2018 02:38 20,5 C 18,9 C 19,4 C 71 % 1018,2 hPa 0,0 l/m 0 min 0 min 0 W/m 4,5 km/h (1 Bft) 100,00 %
01.08.2018 02:40 20,4 C 18,9 C 19,4 C 71 % 1018,1 hPa 0,0 l/m 0 min 0 min 0 W/m 2,3 km/h (1 Bft) 100,00 %
01.08.2018 02:42 20,4 C 18,9 C 19,4 C 71 % 1018,0 hPa 0,0 l/m 0 min 0 min 0 W/m 6,8 km/h (2 Bft) 100,00 %
01.08.2018 02:44 20,4 C 18,9 C 19,4 C 72 % 1018,0 hPa 0,0 l/m 0 min 0 min 0 W/m 4,5 km/h (1 Bft) 100,00 %
01.08.2018 02:46 20,4 C 18,9 C 19,4 C 72 % 1018,0 hPa 0,0 l/m 0 min 0 min 0 W/m 4,5 km/h (1 Bft) 100,00 %
01.08.2018 02:48 20,4 C 18,9 C 19,4 C 72 % 1018,0 hPa 0,0 l/m 0 min 0 min 0 W/m 4,5 km/h (1 Bft) 97,87 %
01.08.2018 02:50 20,4 C 18,9 C 19,4 C 72 % 1018,0 hPa 0,0 l/m 0 min 0 min 0 W/m 2,3 km/h (1 Bft) 100,00 %
01.08.2018 02:52 20,3 C 18,9 C 19,4 C 72 % 1018,0 hPa 0,0 l/m 0 min 0 min 0 W/m 0,0 km/h (0 Bft) 100,00 %
01.08.2018 02:54 20,3 C 18,9 C 19,4 C 72 % 1017,9 hPa 0,0 l/m 0 min 0 min 0 W/m 4,5 km/h (1 Bft) 100,00 %
01.08.2018 02:56 20,3 C 18,9 C 19,4 C 72 % 1017,9 hPa 0,0 l/m 0 min 0 min 0 W/m 6,8 km/h (2 Bft) 100,00 %
01.08.2018 02:58 20,3 C 18,9 C 19,4 C 72 % 1018,0 hPa 0,0 l/m 0 min 0 min 0 W/m 4,5 km/h (1 Bft) 97,87 %
01.08.2018 03:00 20,2 C 19,4 C 19,4 C 72 % 1018,0 hPa 0,0 l/m 0 min 0 min 0 W/m 6,8 km/h (2 Bft) 95,74 %
01.08.2018 03:02 20,2 C 18,9 C 19,4 C 72 % 1018,0 hPa 0,0 l/m 0 min 0 min 0 W/m 2,3 km/h (1 Bft) 93,62 %
01.08.2018 03:04 20,2 C 18,9 C 19,4 C 72 % 1018,0 hPa 0,0 l/m 0 min 0 min 0 W/m 2,3 km/h (1 Bft) 97,87 %
01.08.2018 03:06 20,2 C 18,9 C 19,4 C 72 % 1018,0 hPa 0,0 l/m 0 min 0 min 0 W/m 0,0 km/h (0 Bft) 93,62 %
01.08.2018 03:08 20,2 C 18,9 C 19,4 C 72 % 1018,0 hPa 0,0 l/m 0 min 0 min 0 W/m 4,5 km/h (1 Bft) 95,74 %
01.08.2018 03:10 20,2 C 18,9 C 19,4 C 72 % 1018,0 hPa 0,0 l/m 0 min 0 min 0 W/m 2,3 km/h (1 Bft) 95,74 %
01.08.2018 03:12 20,1 C 18,9 C 19,4 C 72 % 1017,9 hPa 0,0 l/m 0 min 0 min 0 W/m 4,5 km/h (1 Bft) 95,74 %
01.08.2018 03:14 20,1 C 18,9 C 18,9 C 72 % 1018,0 hPa 0,0 l/m 0 min 0 min 0 W/m 2,3 km/h (1 Bft) 93,62 %
01.08.2018 03:16 20,1 C 18,9 C 18,9 C 72 % 1017,9 hPa 0,0 l/m 0 min 0 min 0 W/m 0,0 km/h (0 Bft) 91,30 %
01.08.2018 03:18 20,1 C 18,9 C 18,9 C 72 % 1017,9 hPa 0,0 l/m 0 min 0 min 0 W/m 2,3 km/h (1 Bft) 95,24 %
01.08.2018 03:20 20,1 C 18,9 C 18,9 C 72 % 1018,0 hPa 0,0 l/m 0 min 0 min 0 W/m 4,5 km/h (1 Bft) 97,87 %
01.08.2018 03:22 20,0 C 18,9 C 18,9 C 72 % 1017,9 hPa 0,0 l/m 0 min 0 min 0 W/m 2,3 km/h (1 Bft) 95,74 %
01.08.2018 03:24 20,0 C 18,9 C 18,9 C 72 % 1017,9 hPa 0,0 l/m 0 min 0 min 0 W/m 0,0 km/h (0 Bft) 95,65 %
01.08.2018 03:26 20,0 C 18,9 C 18,9 C 72 % 1017,9 hPa 0,0 l/m 0 min 0 min 0 W/m 0,0 km/h (0 Bft) 93,62 %
01.08.2018 03:28 20,0 C 18,9 C 18,9 C 72 % 1017,9 hPa 0,0 l/m 0 min 0 min 0 W/m 4,5 km/h (1 Bft) 91,49 %
01.08.2018 03:30 19,9 C 18,9 C 18,9 C 72 % 1017,9 hPa 0,0 l/m 0 min 0 min 0 W/m 6,8 km/h (2 Bft) 93,62 %
01.08.2018 03:32 19,9 C 18,9 C 18,9 C 72 % 1017,9 hPa 0,0 l/m 0 min 0 min 0 W/m 2,3 km/h (1 Bft) 91,49 %
01.08.2018 03:34 19,9 C 18,9 C 18,9 C 72 % 1017,9 hPa 0,0 l/m 0 min 0 min 0 W/m 2,3 km/h (1 Bft) 93,62 %
01.08.2018 03:38 19,9 C 18,3 C 18,9 C 73 % 1017,9 hPa 0,0 l/m 0 min 0 min 0 W/m 0,0 km/h (0 Bft) 93,18 %
01.08.2018 03:40 19,8 C 18,3 C 18,9 C 73 % 1017,9 hPa 0,0 l/m 0 min 0 min 0 W/m 2,3 km/h (1 Bft) 93,62 %
01.08.2018 03:42 19,8 C 18,3 C 18,9 C 73 % 1017,9 hPa 0,0 l/m 0 min 0 min 0 W/m 0,0 km/h (0 Bft) 93,62 %
01.08.2018 03:44 19,8 C 18,3 C 18,9 C 73 % 1017,9 hPa 0,0 l/m 0 min 0 min 0 W/m 0,0 km/h (0 Bft) 95,65 %
01.08.2018 03:46 19,8 C 18,3 C 18,9 C 73 % 1017,9 hPa 0,0 l/m 0 min 0 min 0 W/m 0,0 km/h (0 Bft) 93,62 %
01.08.2018 03:48 19,8 C 18,3 C 18,9 C 73 % 1017,9 hPa 0,0 l/m 0 min 0 min 0 W/m 0,0 km/h (0 Bft) 95,24 %
01.08.2018 03:50 19,7 C 18,3 C 18,3 C 73 % 1017,9 hPa 0,0 l/m 0 min 0 min 0 W/m 0,0 km/h (0 Bft) 93,10 %
01.08.2018 03:52 19,7 C 18,3 C 18,3 C 73 % 1018,0 hPa 0,0 l/m 0 min 0 min 0 W/m 0,0 km/h (0 Bft) 91,49 %
01.08.2018 03:54 19,7 C 18,3 C 18,9 C 73 % 1018,0 hPa 0,0 l/m 0 min 0 min 0 W/m 2,3 km/h (1 Bft) 97,14 %
01.08.2018 03:56 19,7 C 18,3 C 18,9 C 73 % 1018,0 hPa 0,0 l/m 0 min 0 min 0 W/m 4,5 km/h (1 Bft) 91,67 %
01.08.2018 03:58 19,6 C 18,3 C 18,9 C 73 % 1018,0 hPa 0,0 l/m 0 min 0 min 0 W/m 4,5 km/h (1 Bft) 93,62 %
01.08.2018 04:00 19,6 C 18,3 C 18,9 C 73 % 1018,0 hPa 0,0 l/m 0 min 0 min 0 W/m 2,3 km/h (1 Bft) 95,74 %
01.08.2018 04:02 19,6 C 18,3 C 18,9 C 73 % 1017,9 hPa 0,0 l/m 0 min 0 min 0 W/m 0,0 km/h (0 Bft) 100,00 %
01.08.2018 04:04 19,6 C 18,3 C 18,9 C 73 % 1018,0 hPa 0,0 l/m 0 min 0 min 0 W/m 4,5 km/h (1 Bft) 93,48 %
01.08.2018 04:08 19,5 C 18,3 C 18,9 C 74 % 1017,9 hPa 0,0 l/m 0 min 0 min 0 W/m 4,5 km/h (1 Bft) 95,74 %
01.08.2018 04:10 19,5 C 18,3 C 18,9 C 74 % 1017,9 hPa 0,0 l/m 0 min 0 min 0 W/m 4,5 km/h (1 Bft) 93,62 %
01.08.2018 04:12 19,5 C 18,3 C 18,9 C 74 % 1018,0 hPa 0,0 l/m 0 min 0 min 0 W/m 0,0 km/h (0 Bft) 97,87 %
01.08.2018 04:14 19,4 C 18,3 C 18,9 C 74 % 1017,9 hPa 0,0 l/m 0 min 0 min 0 W/m 0,0 km/h (0 Bft) 100,00 %
01.08.2018 04:16 19,4 C 18,3 C 18,3 C 74 % 1017,9 hPa 0,0 l/m 0 min 0 min 0 W/m 0,0 km/h (0 Bft) 100,00 %
01.08.2018 04:18 19,4 C 18,3 C 18,3 C 74 % 1017,9 hPa 0,0 l/m 0 min 0 min 0 W/m 2,3 km/h (1 Bft) 97,87 %
01.08.2018 04:20 19,4 C 18,3 C 18,3 C 75 % 1017,9 hPa 0,0 l/m 0 min 0 min 0 W/m 0,0 km/h (0 Bft) 100,00 %
01.08.2018 04:22 19,4 C 18,3 C 18,3 C 75 % 1017,9 hPa 0,0 l/m 0 min 0 min 0 W/m 0,0 km/h (0 Bft) 97,83 %
01.08.2018 04:24 19,4 C 18,3 C 18,3 C 74 % 1017,9 hPa 0,0 l/m 0 min 0 min 0 W/m 0,0 km/h (0 Bft) 97,22 %
01.08.2018 04:26 19,4 C 18,3 C 18,3 C 75 % 1017,9 hPa 0,0 l/m 0 min 0 min 0 W/m 0,0 km/h (0 Bft) 100,00 %
01.08.2018 04:28 19,3 C 18,3 C 18,3 C 75 % 1017,9 hPa 0,0 l/m 0 min 0 min 0 W/m 0,0 km/h (0 Bft) 97,87 %
01.08.2018 04:30 19,3 C 17,8 C 18,3 C 75 % 1017,9 hPa 0,0 l/m 0 min 0 min 0 W/m 0,0 km/h (0 Bft) 95,74 %
01.08.2018 04:32 19,3 C 17,8 C 18,3 C 75 % 1017,9 hPa 0,0 l/m 0 min 0 min 0 W/m 0,0 km/h (0 Bft) 100,00 %
01.08.2018 04:34 19,3 C 17,8 C 18,3 C 76 % 1017,9 hPa 0,0 l/m 0 min 0 min 0 W/m 2,3 km/h (1 Bft) 100,00 %
01.08.2018 04:36 19,3 C 17,8 C 18,3 C 76 % 1017,8 hPa 0,0 l/m 0 min 0 min 0 W/m 4,5 km/h (1 Bft) 95,74 %
01.08.2018 04:38 19,2 C 17,8 C 18,3 C 76 % 1017,8 hPa 0,0 l/m 0 min 0 min 0 W/m 2,3 km/h (1 Bft) 97,87 %
01.08.2018 04:40 19,2 C 17,8 C 18,3 C 76 % 1017,8 hPa 0,0 l/m 0 min 0 min 0 W/m 0,0 km/h (0 Bft) 100,00 %
01.08.2018 04:42 19,2 C 17,2 C 17,8 C 76 % 1017,8 hPa 0,0 l/m 0 min 0 min 0 W/m 0,0 km/h (0 Bft) 100,00 %
01.08.2018 04:44 19,2 C 17,2 C 17,8 C 76 % 1017,8 hPa 0,0 l/m 0 min 0 min 0 W/m 2,3 km/h (1 Bft) 100,00 %
01.08.2018 04:46 19,1 C 17,2 C 18,3 C 76 % 1017,8 hPa 0,0 l/m 0 min 0 min 0 W/m 2,3 km/h (1 Bft) 100,00 %
01.08.2018 04:48 19,1 C 17,2 C 18,3 C 76 % 1017,8 hPa 0,0 l/m 0 min 0 min 0 W/m 4,5 km/h (1 Bft) 100,00 %
01.08.2018 04:50 19,1 C 17,2 C 18,3 C 76 % 1017,8 hPa 0,0 l/m 0 min 0 min 0 W/m 2,3 km/h (1 Bft) 100,00 %
01.08.2018 04:52 19,0 C 17,2 C 18,3 C 76 % 1017,7 hPa 0,0 l/m 0 min 0 min 0 W/m 0,0 km/h (0 Bft) 100,00 %
01.08.2018 04:54 18,9 C 17,2 C 17,8 C 76 % 1017,8 hPa 0,0 l/m 0 min 0 min 0 W/m 0,0 km/h (0 Bft) 100,00 %
01.08.2018 04:56 18,9 C 17,2 C 17,8 C 76 % 1017,8 hPa 0,0 l/m 0 min 0 min 0 W/m 0,0 km/h (0 Bft) 97,87 %
01.08.2018 04:58 18,9 C 16,7 C 17,8 C 76 % 1017,8 hPa 0,0 l/m 0 min 0 min 0 W/m 0,0 km/h (0 Bft) 97,87 %
01.08.2018 05:00 18,9 C 16,7 C 17,2 C 76 % 1017,8 hPa 0,0 l/m 0 min 0 min 0 W/m 0,0 km/h (0 Bft) 97,87 %
01.08.2018 05:02 18,8 C 16,7 C 17,2 C 76 % 1017,8 hPa 0,0 l/m 0 min 0 min 0 W/m 0,0 km/h (0 Bft) 100,00 %
01.08.2018 05:04 18,8 C 16,7 C 17,2 C 76 % 1017,8 hPa 0,0 l/m 0 min 0 min 0 W/m 0,0 km/h (0 Bft) 100,00 %
01.08.2018 05:08 18,7 C 16,7 C 17,2 C 77 % 1017,9 hPa 0,0 l/m 0 min 0 min 0 W/m 0,0 km/h (0 Bft) 100,00 %
01.08.2018 05:10 18,7 C 16,7 C 17,2 C 77 % 1017,9 hPa 0,0 l/m 0 min 0 min 0 W/m 0,0 km/h (0 Bft) 100,00 %
01.08.2018 05:12 18,7 C 16,7 C 17,2 C 77 % 1017,9 hPa 0,0 l/m 0 min 0 min 0 W/m 0,0 km/h (0 Bft) 97,83 %
01.08.2018 05:14 18,6 C 16,7 C 17,2 C 77 % 1017,9 hPa 0,0 l/m 0 min 0 min 0 W/m 0,0 km/h (0 Bft) 100,00 %
01.08.2018 05:16 18,6 C 16,7 C 17,2 C 77 % 1017,9 hPa 0,0 l/m 0 min 0 min 0 W/m 0,0 km/h (0 Bft) 100,00 %
01.08.2018 05:18 18,6 C 16,7 C 17,2 C 77 % 1018,0 hPa 0,0 l/m 0 min 0 min 0 W/m 0,0 km/h (0 Bft) 100,00 %
01.08.2018 05:20 18,6 C 16,7 C 17,2 C 77 % 1017,9 hPa 0,0 l/m 0 min 0 min 0 W/m 0,0 km/h (0 Bft) 100,00 %
01.08.2018 05:22 18,5 C 16,7 C 17,2 C 77 % 1018,0 hPa 0,0 l/m 0 min 0 min 0 W/m 0,0 km/h (0 Bft) 100,00 %
01.08.2018 05:24 18,4 C 16,7 C 17,2 C 78 % 1017,9 hPa 0,0 l/m 0 min 0 min 0 W/m 0,0 km/h (0 Bft) 100,00 %
01.08.2018 05:26 18,4 C 16,7 C 17,2 C 78 % 1017,9 hPa 0,0 l/m 0 min 0 min 0 W/m 0,0 km/h (0 Bft) 100,00 %
01.08.2018 05:28 18,4 C 16,7 C 17,2 C 78 % 1017,9 hPa 0,0 l/m 0 min 0 min 0 W/m 0,0 km/h (0 Bft) 100,00 %
01.08.2018 05:30 18,4 C 16,7 C 17,2 C 78 % 1018,0 hPa 0,0 l/m 0 min 0 min 0 W/m 0,0 km/h (0 Bft) 97,87 %
01.08.2018 05:32 18,3 C 16,7 C 17,2 C 79 % 1018,0 hPa 0,0 l/m 0 min 0 min 0 W/m 0,0 km/h (0 Bft) 100,00 %
01.08.2018 05:34 18,3 C 16,7 C 17,2 C 79 % 1018,0 hPa 0,0 l/m 0 min 0 min 0 W/m 0,0 km/h (0 Bft) 97,87 %
01.08.2018 05:35 18,3 C 16,7 C 17,2 C 79 % 1018,1 hPa 0,0 l/m 0 min 0 min 0 W/m 0,0 km/h (0 Bft) 100,00 %
01.08.2018 05:40 18,2 C 16,7 C 17,2 C 79 % 1018,1 hPa 0,0 l/m 0 min 0 min 0 W/m 0,0 km/h (0 Bft) 92,86 %
01.08.2018 05:42 18,2 C 16,7 C 17,2 C 79 % 1018,1 hPa 0,0 l/m 0 min 0 min 0 W/m 0,0 km/h (0 Bft) 98,21 %
01.08.2018 05:44 18,1 C 16,1 C 17,2 C 80 % 1018,1 hPa 0,0 l/m 0 min 0 min 0 W/m 0,0 km/h (0 Bft) 93,48 %
01.08.2018 05:46 18,1 C 16,1 C 17,2 C 80 % 1018,1 hPa 0,0 l/m 0 min 0 min 0 W/m 0,0 km/h (0 Bft) 97,87 %
01.08.2018 05:48 18,1 C 16,1 C 17,2 C 81 % 1018,1 hPa 0,0 l/m 0 min 0 min 0 W/m 0,0 km/h (0 Bft) 97,87 %
01.08.2018 05:50 18,0 C 16,1 C 17,2 C 81 % 1018,1 hPa 0,0 l/m 0 min 0 min 0 W/m 0,0 km/h (0 Bft) 100,00 %
01.08.2018 05:52 17,9 C 16,1 C 17,2 C 81 % 1018,0 hPa 0,0 l/m 0 min 0 min 0 W/m 0,0 km/h (0 Bft) 97,87 %
01.08.2018 05:54 17,9 C 16,1 C 16,7 C 81 % 1018,1 hPa 0,0 l/m 0 min 0 min 0 W/m 0,0 km/h (0 Bft) 95,74 %
01.08.2018 05:56 17,9 C 16,1 C 16,7 C 81 % 1018,2 hPa 0,0 l/m 0 min 0 min 1 W/m 2,3 km/h (1 Bft) 97,83 %
01.08.2018 05:58 17,9 C 16,1 C 16,7 C 81 % 1018,2 hPa 0,0 l/m 0 min 0 min 5 W/m 0,0 km/h (0 Bft) 97,87 %
01.08.2018 06:00 17,8 C 16,1 C 17,2 C 81 % 1018,2 hPa 0,0 l/m 0 min 0 min 5 W/m 0,0 km/h (0 Bft) 98,00 %
01.08.2018 06:02 17,8 C 16,1 C 17,2 C 81 % 1018,2 hPa 0,0 l/m 0 min 0 min 6 W/m 0,0 km/h (0 Bft) 95,74 %
01.08.2018 06:04 17,8 C 16,1 C 16,7 C 82 % 1018,3 hPa 0,0 l/m 0 min 0 min 7 W/m 0,0 km/h (0 Bft) 100,00 %
01.08.2018 06:06 17,8 C 16,1 C 17,2 C 82 % 1018,3 hPa 0,0 l/m 0 min 0 min 7 W/m 0,0 km/h (0 Bft) 97,87 %
01.08.2018 06:08 17,7 C 16,7 C 17,2 C 82 % 1018,3 hPa 0,0 l/m 0 min 0 min 9 W/m 0,0 km/h (0 Bft) 95,83 %
01.08.2018 06:10 17,7 C 16,1 C 16,7 C 82 % 1018,3 hPa 0,0 l/m 0 min 0 min 9 W/m 0,0 km/h (0 Bft) 97,83 %
01.08.2018 06:12 17,7 C 16,1 C 16,7 C 82 % 1018,2 hPa 0,0 l/m 0 min 0 min 10 W/m 0,0 km/h (0 Bft) 95,74 %
01.08.2018 06:14 17,7 C 16,7 C 16,7 C 82 % 1018,3 hPa 0,0 l/m 0 min 0 min 11 W/m 0,0 km/h (0 Bft) 97,87 %
01.08.2018 06:16 17,7 C 16,1 C 16,7 C 82 % 1018,2 hPa 0,0 l/m 0 min 0 min 11 W/m 0,0 km/h (0 Bft) 97,92 %
01.08.2018 06:18 17,6 C 16,1 C 16,7 C 82 % 1018,2 hPa 0,0 l/m 0 min 0 min 12 W/m 0,0 km/h (0 Bft) 97,87 %
01.08.2018 06:20 17,6 C 16,7 C 16,7 C 82 % 1018,2 hPa 0,0 l/m 0 min 0 min 12 W/m 0,0 km/h (0 Bft) 98,11 %
01.08.2018 06:22 17,6 C 16,7 C 16,7 C 82 % 1018,3 hPa 0,0 l/m 0 min 0 min 13 W/m 0,0 km/h (0 Bft) 97,37 %
01.08.2018 06:24 17,6 C 16,1 C 16,7 C 82 % 1018,2 hPa 0,0 l/m 0 min 0 min 14 W/m 0,0 km/h (0 Bft) 95,74 %
01.08.2018 06:26 17,6 C 16,1 C 16,7 C 82 % 1018,2 hPa 0,0 l/m 0 min 0 min 15 W/m 0,0 km/h (0 Bft) 95,74 %
01.08.2018 06:28 17,6 C 16,1 C 16,7 C 82 % 1018,2 hPa 0,0 l/m 0 min 0 min 16 W/m 0,0 km/h (0 Bft) 93,62 %
01.08.2018 06:30 17,5 C 16,1 C 16,7 C 82 % 1018,1 hPa 0,0 l/m 0 min 0 min 16 W/m 0,0 km/h (0 Bft) 93,62 %
01.08.2018 06:32 17,5 C 16,1 C 16,7 C 82 % 1018,2 hPa 0,0 l/m 0 min 0 min 19 W/m 0,0 km/h (0 Bft) 95,92 %
01.08.2018 06:34 17,5 C 16,1 C 16,7 C 82 % 1018,2 hPa 0,0 l/m 0 min 0 min 20 W/m 0,0 km/h (0 Bft) 94,00 %
01.08.2018 06:36 17,5 C 16,1 C 16,7 C 82 % 1018,1 hPa 0,0 l/m 0 min 0 min 21 W/m 0,0 km/h (0 Bft) 96,00 %
01.08.2018 06:38 17,4 C 16,7 C 16,7 C 82 % 1018,1 hPa 0,0 l/m 0 min 0 min 22 W/m 0,0 km/h (0 Bft) 97,87 %
01.08.2018 06:40 17,4 C 16,7 C 16,7 C 82 % 1018,2 hPa 0,0 l/m 0 min 0 min 24 W/m 0,0 km/h (0 Bft) 95,74 %
01.08.2018 06:42 17,4 C 16,1 C 16,7 C 82 % 1018,1 hPa 0,0 l/m 0 min 0 min 25 W/m 0,0 km/h (0 Bft) 97,37 %
01.08.2018 06:44 17,4 C 16,1 C 16,7 C 82 % 1018,0 hPa 0,0 l/m 0 min 0 min 25 W/m 0,0 km/h (0 Bft) 95,65 %
01.08.2018 06:45 17,4 C 16,1 C 16,7 C 82 % 1018,0 hPa 0,0 l/m 0 min 0 min 25 W/m 0,0 km/h (0 Bft) 100,00 %
01.08.2018 06:50 17,4 C 16,7 C 16,7 C 83 % 1018,1 hPa 0,0 l/m 0 min 0 min 26 W/m 0,0 km/h (0 Bft) 99,19 %
01.08.2018 06:52 17,4 C 16,7 C 16,7 C 83 % 1018,2 hPa 0,0 l/m 0 min 0 min 29 W/m 0,0 km/h (0 Bft) 98,46 %
01.08.2018 06:54 17,4 C 16,7 C 16,7 C 83 % 1018,3 hPa 0,0 l/m 0 min 0 min 30 W/m 0,0 km/h (0 Bft) 97,87 %
01.08.2018 06:56 17,3 C 17,2 C 17,2 C 83 % 1018,2 hPa 0,0 l/m 0 min 0 min 30 W/m 4,5 km/h (1 Bft) 97,87 %
01.08.2018 06:58 17,3 C 17,2 C 17,2 C 84 % 1018,2 hPa 0,0 l/m 0 min 0 min 32 W/m 2,3 km/h (1 Bft) 97,87 %
01.08.2018 07:00 17,3 C 17,2 C 17,2 C 84 % 1018,2 hPa 0,0 l/m 0 min 0 min 32 W/m 0,0 km/h (0 Bft) 97,83 %
01.08.2018 07:02 17,3 C 17,2 C 17,2 C 84 % 1018,3 hPa 0,0 l/m 0 min 0 min 33 W/m 0,0 km/h (0 Bft) 95,45 %
01.08.2018 07:04 17,3 C 17,2 C 17,2 C 84 % 1018,3 hPa 0,0 l/m 0 min 0 min 33 W/m 0,0 km/h (0 Bft) 93,62 %
01.08.2018 07:06 17,3 C 17,2 C 17,2 C 84 % 1018,2 hPa 0,0 l/m 0 min 0 min 35 W/m 0,0 km/h (0 Bft) 95,74 %
01.08.2018 07:08 17,4 C 17,2 C 17,2 C 85 % 1018,3 hPa 0,0 l/m 0 min 0 min 36 W/m 0,0 km/h (0 Bft) 95,65 %
01.08.2018 07:10 17,4 C 17,2 C 17,2 C 85 % 1018,2 hPa 0,0 l/m 0 min 0 min 37 W/m 2,3 km/h (1 Bft) 95,74 %
01.08.2018 07:12 17,4 C 17,8 C 17,2 C 85 % 1018,2 hPa 0,0 l/m 0 min 0 min 37 W/m 0,0 km/h (0 Bft) 93,62 %
01.08.2018 07:14 17,4 C 17,8 C 17,2 C 85 % 1018,3 hPa 0,0 l/m 0 min 0 min 39 W/m 0,0 km/h (0 Bft) 98,15 %
01.08.2018 07:16 17,4 C 17,8 C 17,2 C 85 % 1018,3 hPa 0,0 l/m 0 min 0 min 40 W/m 0,0 km/h (0 Bft) 97,87 %
01.08.2018 07:18 17,4 C 17,8 C 17,2 C 85 % 1018,3 hPa 0,0 l/m 0 min 0 min 42 W/m 0,0 km/h (0 Bft) 97,87 %
01.08.2018 07:20 17,4 C 17,8 C 17,8 C 85 % 1018,4 hPa 0,0 l/m 0 min 0 min 42 W/m 0,0 km/h (0 Bft) 95,74 %
01.08.2018 07:22 17,4 C 17,8 C 17,8 C 86 % 1018,4 hPa 0,0 l/m 0 min 0 min 44 W/m 0,0 km/h (0 Bft) 94,12 %
01.08.2018 07:24 17,4 C 17,8 C 17,8 C 86 % 1018,4 hPa 0,0 l/m 0 min 0 min 44 W/m 0,0 km/h (0 Bft) 97,87 %
01.08.2018 07:26 17,5 C 18,3 C 17,8 C 86 % 1018,5 hPa 0,0 l/m 0 min 0 min 46 W/m 0,0 km/h (0 Bft) 97,87 %
01.08.2018 07:28 17,5 C 18,3 C 17,8 C 86 % 1018,4 hPa 0,0 l/m 0 min 0 min 46 W/m 0,0 km/h (0 Bft) 97,87 %
01.08.2018 07:30 17,5 C 18,3 C 17,8 C 86 % 1018,3 hPa 0,0 l/m 0 min 0 min 49 W/m 0,0 km/h (0 Bft) 95,65 %
01.08.2018 07:32 17,6 C 18,3 C 17,8 C 86 % 1018,3 hPa 0,0 l/m 0 min 0 min 52 W/m 2,3 km/h (1 Bft) 97,87 %
01.08.2018 07:34 17,6 C 18,3 C 17,8 C 86 % 1018,3 hPa 0,0 l/m 0 min 0 min 53 W/m 0,0 km/h (0 Bft) 97,87 %
01.08.2018 07:36 17,6 C 18,3 C 18,3 C 87 % 1018,3 hPa 0,0 l/m 0 min 0 min 54 W/m 0,0 km/h (0 Bft) 97,87 %
01.08.2018 07:38 17,6 C 18,3 C 18,3 C 87 % 1018,3 hPa 0,0 l/m 0 min 0 min 56 W/m 0,0 km/h (0 Bft) 97,87 %
01.08.2018 07:40 17,7 C 18,9 C 18,3 C 87 % 1018,2 hPa 0,0 l/m 0 min 0 min 56 W/m 2,3 km/h (1 Bft) 97,87 %
01.08.2018 07:42 17,7 C 18,9 C 18,3 C 87 % 1018,3 hPa 0,0 l/m 0 min 0 min 56 W/m 4,5 km/h (1 Bft) 97,83 %
01.08.2018 07:44 17,7 C 18,9 C 18,3 C 87 % 1018,3 hPa 0,0 l/m 0 min 0 min 61 W/m 4,5 km/h (1 Bft) 97,87 %
01.08.2018 07:46 17,7 C 18,9 C 18,3 C 87 % 1018,3 hPa 0,0 l/m 0 min 0 min 71 W/m 4,5 km/h (1 Bft) 97,87 %
01.08.2018 07:48 17,8 C 18,9 C 18,9 C 87 % 1018,3 hPa 0,0 l/m 0 min 0 min 76 W/m 2,3 km/h (1 Bft) 97,87 %
01.08.2018 07:50 17,8 C 19,4 C 18,9 C 87 % 1018,4 hPa 0,0 l/m 0 min 0 min 84 W/m 2,3 km/h (1 Bft) 97,87 %
01.08.2018 07:52 17,8 C 19,4 C 18,9 C 87 % 1018,5 hPa 0,0 l/m 0 min 0 min 91 W/m 2,3 km/h (1 Bft) 97,83 %
01.08.2018 07:54 17,9 C 19,4 C 18,9 C 87 % 1018,4 hPa 0,0 l/m 0 min 0 min 96 W/m 2,3 km/h (1 Bft) 97,87 %
01.08.2018 07:56 17,9 C 20,0 C 18,9 C 87 % 1018,4 hPa 0,0 l/m 0 min 0 min 102 W/m 4,5 km/h (1 Bft) 97,14 %
01.08.2018 07:58 17,9 C 20,0 C 18,9 C 87 % 1018,4 hPa 0,0 l/m 0 min 0 min 111 W/m 2,3 km/h (1 Bft) 97,87 %
01.08.2018 08:00 18,1 C 20,0 C 19,4 C 87 % 1018,5 hPa 0,0 l/m 0 min 0 min 108 W/m 6,8 km/h (2 Bft) 97,87 %
01.08.2018 08:02 18,1 C 20,6 C 19,4 C 87 % 1018,4 hPa 0,0 l/m 0 min 0 min 101 W/m 4,5 km/h (1 Bft) 97,87 %
01.08.2018 08:04 18,1 C 20,6 C 19,4 C 87 % 1018,4 hPa 0,0 l/m 0 min 0 min 104 W/m 4,5 km/h (1 Bft) 100,00 %
01.08.2018 08:08 18,3 C 20,6 C 19,4 C 86 % 1018,4 hPa 0,0 l/m 0 min 0 min 102 W/m 4,5 km/h (1 Bft) 100,00 %
01.08.2018 08:10 18,3 C 20,6 C 19,4 C 86 % 1018,4 hPa 0,0 l/m 0 min 0 min 98 W/m 4,5 km/h (1 Bft) 97,87 %
01.08.2018 08:12 18,4 C 20,6 C 19,4 C 86 % 1018,4 hPa 0,0 l/m 0 min 0 min 98 W/m 4,5 km/h (1 Bft) 93,62 %
01.08.2018 08:14 18,4 C 20,6 C 19,4 C 86 % 1018,3 hPa 0,0 l/m 0 min 0 min 98 W/m 2,3 km/h (1 Bft) 97,87 %
01.08.2018 08:16 18,5 C 20,6 C 19,4 C 86 % 1018,3 hPa 0,0 l/m 0 min 0 min 97 W/m 4,5 km/h (1 Bft) 100,00 %
01.08.2018 08:18 18,6 C 20,6 C 19,4 C 85 % 1018,3 hPa 0,0 l/m 0 min 0 min 93 W/m 4,5 km/h (1 Bft) 100,00 %
01.08.2018 08:20 18,7 C 20,6 C 19,4 C 85 % 1018,4 hPa 0,0 l/m 0 min 0 min 105 W/m 4,5 km/h (1 Bft) 97,83 %
01.08.2018 08:22 18,7 C 20,6 C 19,4 C 85 % 1018,4 hPa 0,0 l/m 0 min 0 min 112 W/m 6,8 km/h (2 Bft) 97,87 %
01.08.2018 08:24 18,8 C 21,1 C 19,4 C 85 % 1018,5 hPa 0,0 l/m 0 min 0 min 110 W/m 4,5 km/h (1 Bft) 97,87 %
01.08.2018 08:26 18,8 C 21,1 C 20,0 C 85 % 1018,5 hPa 0,0 l/m 0 min 0 min 107 W/m 6,8 km/h (2 Bft) 100,00 %
01.08.2018 08:28 18,9 C 21,1 C 20,0 C 84 % 1018,5 hPa 0,0 l/m 0 min 0 min 102 W/m 4,5 km/h (1 Bft) 100,00 %
01.08.2018 08:30 19,0 C 21,1 C 20,0 C 84 % 1018,5 hPa 0,0 l/m 0 min 0 min 96 W/m 4,5 km/h (1 Bft) 95,74 %
01.08.2018 08:32 19,1 C 21,1 C 20,0 C 84 % 1018,4 hPa 0,0 l/m 0 min 0 min 95 W/m 6,8 km/h (2 Bft) 97,87 %
01.08.2018 08:34 19,2 C 21,1 C 20,0 C 84 % 1018,4 hPa 0,0 l/m 0 min 0 min 99 W/m 4,5 km/h (1 Bft) 97,87 %
01.08.2018 08:36 19,3 C 21,1 C 20,0 C 83 % 1018,4 hPa 0,0 l/m 0 min 0 min 118 W/m 4,5 km/h (1 Bft) 95,74 %
01.08.2018 08:38 19,3 C 21,1 C 20,0 C 83 % 1018,5 hPa 0,0 l/m 0 min 0 min 179 W/m 4,5 km/h (1 Bft) 97,87 %
01.08.2018 08:40 19,4 C 21,1 C 20,0 C 83 % 1018,5 hPa 0,0 l/m 0 min 0 min 134 W/m 6,8 km/h (2 Bft) 95,74 %
01.08.2018 08:42 19,5 C 21,7 C 20,0 C 83 % 1018,5 hPa 0,0 l/m 0 min 0 min 119 W/m 6,8 km/h (2 Bft) 97,96 %
01.08.2018 08:44 19,6 C 21,7 C 20,6 C 83 % 1018,4 hPa 0,0 l/m 0 min 0 min 120 W/m 4,5 km/h (1 Bft) 97,87 %
01.08.2018 08:46 19,6 C 21,7 C 20,6 C 82 % 1018,4 hPa 0,0 l/m 0 min 0 min 155 W/m 4,5 km/h (1 Bft) 97,87 %
01.08.2018 08:48 19,7 C 22,2 C 20,6 C 82 % 1018,4 hPa 0,0 l/m 2 min 0 min 227 W/m 4,5 km/h (1 Bft) 97,87 %
01.08.2018 08:50 19,8 C 22,2 C 20,6 C 82 % 1018,5 hPa 0,0 l/m 2 min 0 min 205 W/m 4,5 km/h (1 Bft) 97,87 %
01.08.2018 08:52 19,8 C 22,8 C 20,6 C 81 % 1018,5 hPa 0,0 l/m 2 min 0 min 268 W/m 4,5 km/h (1 Bft) 95,74 %
01.08.2018 08:54 19,9 C 22,8 C 20,6 C 81 % 1018,5 hPa 0,0 l/m 2 min 0 min 279 W/m 4,5 km/h (1 Bft) 97,87 %
01.08.2018 08:56 20,0 C 22,8 C 20,6 C 81 % 1018,6 hPa 0,0 l/m 2 min 0 min 292 W/m 6,8 km/h (2 Bft) 97,87 %
01.08.2018 08:58 20,1 C 22,8 C 21,1 C 80 % 1018,5 hPa 0,0 l/m 2 min 0 min 283 W/m 6,8 km/h (2 Bft) 97,87 %
01.08.2018 09:00 20,2 C 22,8 C 21,1 C 79 % 1018,5 hPa 0,0 l/m 2 min 0 min 274 W/m 6,8 km/h (2 Bft) 97,87 %
01.08.2018 09:02 20,3 C 22,8 C 21,1 C 79 % 1018,5 hPa 0,0 l/m 2 min 0 min 300 W/m 9,0 km/h (2 Bft) 97,87 %
01.08.2018 09:04 20,4 C 22,8 C 21,1 C 79 % 1018,5 hPa 0,0 l/m 2 min 0 min 328 W/m 6,8 km/h (2 Bft) 97,83 %
01.08.2018 09:06 20,5 C 22,8 C 21,1 C 78 % 1018,5 hPa 0,0 l/m 2 min 0 min 353 W/m 6,8 km/h (2 Bft) 95,74 %
01.08.2018 09:08 20,6 C 23,3 C 21,1 C 78 % 1018,6 hPa 0,0 l/m 2 min 0 min 366 W/m 4,5 km/h (1 Bft) 95,74 %
01.08.2018 09:10 20,7 C 23,3 C 21,1 C 77 % 1018,6 hPa 0,0 l/m 2 min 0 min 354 W/m 6,8 km/h (2 Bft) 95,74 %
01.08.2018 09:12 20,8 C 23,3 C 21,7 C 77 % 1018,6 hPa 0,0 l/m 2 min 0 min 361 W/m 6,8 km/h (2 Bft) 95,74 %
01.08.2018 09:14 20,9 C 23,3 C 21,7 C 76 % 1018,5 hPa 0,0 l/m 2 min 0 min 371 W/m 6,8 km/h (2 Bft) 95,74 %
01.08.2018 09:16 21,0 C 23,9 C 21,7 C 76 % 1018,6 hPa 0,0 l/m 2 min 0 min 377 W/m 4,5 km/h (1 Bft) 97,83 %
01.08.2018 09:18 21,1 C 23,9 C 21,7 C 76 % 1018,5 hPa 0,0 l/m 2 min 0 min 373 W/m 6,8 km/h (2 Bft) 95,74 %
01.08.2018 09:20 21,2 C 23,9 C 21,7 C 75 % 1018,5 hPa 0,0 l/m 2 min 0 min 381 W/m 11,3 km/h (2 Bft) 93,62 %
01.08.2018 09:22 21,3 C 23,9 C 21,7 C 75 % 1018,5 hPa 0,0 l/m 2 min 0 min 347 W/m 6,8 km/h (2 Bft) 97,87 %
01.08.2018 09:24 21,5 C 23,9 C 21,7 C 74 % 1018,5 hPa 0,0 l/m 2 min 0 min 356 W/m 9,0 km/h (2 Bft) 97,87 %
01.08.2018 09:26 21,6 C 23,9 C 22,2 C 74 % 1018,5 hPa 0,0 l/m 2 min 0 min 374 W/m 9,0 km/h (2 Bft) 98,18 %
01.08.2018 09:28 21,7 C 24,4 C 22,2 C 73 % 1018,5 hPa 0,0 l/m 2 min 0 min 383 W/m 6,8 km/h (2 Bft) 97,87 %
01.08.2018 09:30 21,8 C 24,4 C 22,2 C 72 % 1018,4 hPa 0,0 l/m 2 min 0 min 426 W/m 4,5 km/h (1 Bft) 97,14 %
01.08.2018 09:32 21,9 C 24,4 C 22,2 C 72 % 1018,5 hPa 0,0 l/m 2 min 0 min 425 W/m 13,5 km/h (3 Bft) 97,96 %
01.08.2018 09:34 22,1 C 24,4 C 22,2 C 71 % 1018,5 hPa 0,0 l/m 2 min 0 min 341 W/m 9,0 km/h (2 Bft) 97,87 %
01.08.2018 09:36 22,3 C 25,0 C 22,8 C 71 % 1018,5 hPa 0,0 l/m 2 min 0 min 346 W/m 6,8 km/h (2 Bft) 97,92 %
01.08.2018 09:38 22,4 C 24,4 C 22,2 C 70 % 1018,5 hPa 0,0 l/m 2 min 0 min 289 W/m 9,0 km/h (2 Bft) 95,74 %
01.08.2018 09:40 22,5 C 24,4 C 22,2 C 70 % 1018,5 hPa 0,0 l/m 2 min 0 min 270 W/m 6,8 km/h (2 Bft) 100,00 %
01.08.2018 09:42 22,6 C 24,4 C 22,2 C 69 % 1018,5 hPa 0,0 l/m 0 min 0 min 253 W/m 9,0 km/h (2 Bft) 96,61 %
01.08.2018 09:44 22,7 C 24,4 C 22,2 C 68 % 1018,6 hPa 0,0 l/m 0 min 0 min 220 W/m 9,0 km/h (2 Bft) 97,87 %
01.08.2018 09:46 22,8 C 24,4 C 22,2 C 68 % 1018,5 hPa 0,0 l/m 0 min 0 min 265 W/m 6,8 km/h (2 Bft) 97,87 %
01.08.2018 09:48 22,9 C 25,0 C 22,2 C 68 % 1018,6 hPa 0,0 l/m 2 min 0 min 316 W/m 6,8 km/h (2 Bft) 100,00 %
01.08.2018 09:50 22,9 C 25,0 C 22,8 C 68 % 1018,6 hPa 0,0 l/m 2 min 0 min 319 W/m 9,0 km/h (2 Bft) 97,87 %
01.08.2018 09:52 23,1 C 25,0 C 22,8 C 67 % 1018,6 hPa 0,0 l/m 0 min 0 min 245 W/m 6,8 km/h (2 Bft) 100,00 %
01.08.2018 09:54 23,1 C 25,0 C 22,8 C 67 % 1018,6 hPa 0,0 l/m 0 min 0 min 220 W/m 6,8 km/h (2 Bft) 97,87 %
01.08.2018 09:56 23,2 C 25,0 C 22,8 C 67 % 1018,7 hPa 0,0 l/m 0 min 0 min 219 W/m 9,0 km/h (2 Bft) 100,00 %
01.08.2018 09:58 23,3 C 25,0 C 22,8 C 67 % 1018,6 hPa 0,0 l/m 0 min 0 min 224 W/m 6,8 km/h (2 Bft) 100,00 %
01.08.2018 10:00 23,3 C 25,0 C 22,8 C 67 % 1018,7 hPa 0,0 l/m 0 min 0 min 236 W/m 4,5 km/h (1 Bft) 100,00 %
01.08.2018 10:02 23,4 C 25,0 C 22,8 C 67 % 1018,7 hPa 0,0 l/m 0 min 0 min 249 W/m 6,8 km/h (2 Bft) 95,74 %
01.08.2018 10:04 23,4 C 25,0 C 22,8 C 66 % 1018,6 hPa 0,0 l/m 0 min 0 min 244 W/m 9,0 km/h (2 Bft) 100,00 %
01.08.2018 10:06 23,5 C 25,0 C 22,8 C 67 % 1018,7 hPa 0,0 l/m 0 min 0 min 250 W/m 6,8 km/h (2 Bft) 100,00 %
01.08.2018 10:08 23,6 C 25,0 C 22,8 C 67 % 1018,6 hPa 0,0 l/m 0 min 0 min 265 W/m 4,5 km/h (1 Bft) 100,00 %
01.08.2018 10:10 23,6 C 25,6 C 22,8 C 67 % 1018,7 hPa 0,0 l/m 0 min 0 min 253 W/m 4,5 km/h (1 Bft) 100,00 %
01.08.2018 10:12 23,6 C 25,6 C 22,8 C 67 % 1018,6 hPa 0,0 l/m 0 min 0 min 261 W/m 6,8 km/h (2 Bft) 100,00 %
01.08.2018 10:14 23,7 C 25,6 C 22,8 C 66 % 1018,7 hPa 0,0 l/m 0 min 0 min 268 W/m 11,3 km/h (2 Bft) 100,00 %
01.08.2018 10:16 23,7 C 25,6 C 22,8 C 66 % 1018,7 hPa 0,0 l/m 0 min 0 min 264 W/m 4,5 km/h (1 Bft) 100,00 %
01.08.2018 10:18 23,8 C 25,6 C 22,8 C 66 % 1018,7 hPa 0,0 l/m 0 min 0 min 266 W/m 6,8 km/h (2 Bft) 100,00 %
01.08.2018 10:20 23,8 C 25,6 C 22,8 C 66 % 1018,8 hPa 0,0 l/m 0 min 0 min 261 W/m 4,5 km/h (1 Bft) 100,00 %
01.08.2018 10:22 23,8 C 25,6 C 22,8 C 67 % 1018,7 hPa 0,0 l/m 0 min 0 min 263 W/m 2,3 km/h (1 Bft) 97,87 %
01.08.2018 10:24 23,9 C 25,6 C 22,8 C 66 % 1018,7 hPa 0,0 l/m 0 min 0 min 270 W/m 2,3 km/h (1 Bft) 97,87 %
01.08.2018 10:26 23,9 C 25,6 C 22,8 C 66 % 1018,7 hPa 0,0 l/m 0 min 0 min 273 W/m 9,0 km/h (2 Bft) 97,83 %
01.08.2018 10:28 24,0 C 25,6 C 22,8 C 66 % 1018,7 hPa 0,0 l/m 0 min 0 min 282 W/m 9,0 km/h (2 Bft) 97,87 %
01.08.2018 10:30 24,0 C 26,1 C 22,8 C 66 % 1018,7 hPa 0,0 l/m 0 min 0 min 295 W/m 6,8 km/h (2 Bft) 97,87 %
01.08.2018 10:32 24,1 C 26,1 C 22,8 C 65 % 1018,7 hPa 0,0 l/m 2 min 0 min 314 W/m 4,5 km/h (1 Bft) 97,87 %
01.08.2018 10:34 24,1 C 26,1 C 23,3 C 66 % 1018,7 hPa 0,0 l/m 2 min 0 min 336 W/m 4,5 km/h (1 Bft) 95,74 %
01.08.2018 10:36 24,2 C 26,7 C 23,3 C 65 % 1018,8 hPa 0,0 l/m 2 min 0 min 376 W/m 4,5 km/h (1 Bft) 97,87 %
01.08.2018 10:38 24,2 C 27,2 C 23,3 C 65 % 1018,8 hPa 0,0 l/m 2 min 0 min 406 W/m 6,8 km/h (2 Bft) 97,87 %
01.08.2018 10:40 24,3 C 27,2 C 23,3 C 64 % 1018,8 hPa 0,0 l/m 2 min 0 min 416 W/m 6,8 km/h (2 Bft) 97,83 %
01.08.2018 10:42 24,3 C 28,3 C 23,3 C 63 % 1018,7 hPa 0,0 l/m 2 min 0 min 491 W/m 6,8 km/h (2 Bft) 97,87 %
01.08.2018 10:44 24,4 C 30,0 C 23,9 C 63 % 1018,7 hPa 0,0 l/m 2 min 0 min 614 W/m 6,8 km/h (2 Bft) 97,87 %
01.08.2018 10:46 24,4 C 30,6 C 23,9 C 63 % 1018,8 hPa 0,0 l/m 2 min 0 min 624 W/m 9,0 km/h (2 Bft) 97,87 %
01.08.2018 10:48 24,5 C 31,7 C 23,9 C 63 % 1018,8 hPa 0,0 l/m 2 min 0 min 609 W/m 9,0 km/h (2 Bft) 97,87 %
01.08.2018 10:50 24,6 C 32,8 C 23,9 C 63 % 1018,8 hPa 0,0 l/m 2 min 0 min 661 W/m 4,5 km/h (1 Bft) 97,83 %
01.08.2018 10:52 24,8 C 32,8 C 24,4 C 61 % 1018,8 hPa 0,0 l/m 2 min 0 min 738 W/m 9,0 km/h (2 Bft) 93,62 %
01.08.2018 10:54 24,9 C 32,8 C 24,4 C 61 % 1018,7 hPa 0,0 l/m 2 min 0 min 678 W/m 11,3 km/h (2 Bft) 97,87 %
01.08.2018 10:56 25,1 C 33,9 C 24,4 C 62 % 1018,7 hPa 0,0 l/m 2 min 0 min 694 W/m 6,8 km/h (2 Bft) 97,87 %
01.08.2018 10:58 25,2 C 33,9 C 24,4 C 61 % 1018,8 hPa 0,0 l/m 2 min 0 min 682 W/m 6,8 km/h (2 Bft) 97,87 %
01.08.2018 11:00 25,4 C 33,9 C 25,0 C 61 % 1018,8 hPa 0,0 l/m 2 min 0 min 635 W/m 4,5 km/h (1 Bft) 98,15 %
01.08.2018 11:02 25,6 C 33,3 C 25,0 C 60 % 1018,8 hPa 0,0 l/m 2 min 0 min 622 W/m 4,5 km/h (1 Bft) 97,56 %
01.08.2018 11:04 25,7 C 33,3 C 25,0 C 60 % 1018,7 hPa 0,0 l/m 2 min 0 min 613 W/m 6,8 km/h (2 Bft) 97,87 %
01.08.2018 11:06 25,9 C 32,8 C 25,0 C 59 % 1018,7 hPa 0,0 l/m 2 min 0 min 556 W/m 6,8 km/h (2 Bft) 97,87 %
01.08.2018 11:08 26,1 C 32,2 C 25,0 C 59 % 1018,7 hPa 0,0 l/m 2 min 0 min 524 W/m 11,3 km/h (2 Bft) 97,14 %
01.08.2018 11:10 26,2 C 31,7 C 25,0 C 58 % 1018,7 hPa 0,0 l/m 2 min 0 min 524 W/m 9,0 km/h (2 Bft) 98,15 %
01.08.2018 11:12 26,3 C 30,0 C 25,0 C 57 % 1018,7 hPa 0,0 l/m 2 min 0 min 468 W/m 11,3 km/h (2 Bft) 97,87 %
01.08.2018 11:14 26,4 C 29,4 C 24,4 C 56 % 1018,7 hPa 0,0 l/m 2 min 0 min 426 W/m 9,0 km/h (2 Bft) 98,00 %
01.08.2018 11:16 26,4 C 29,4 C 24,4 C 56 % 1018,7 hPa 0,0 l/m 2 min 0 min 446 W/m 6,8 km/h (2 Bft) 97,87 %
01.08.2018 11:18 26,6 C 29,4 C 24,4 C 55 % 1018,8 hPa 0,0 l/m 2 min 0 min 488 W/m 6,8 km/h (2 Bft) 97,83 %
01.08.2018 11:20 26,6 C 29,4 C 24,4 C 56 % 1018,9 hPa 0,0 l/m 2 min 0 min 474 W/m 6,8 km/h (2 Bft) 100,00 %
01.08.2018 11:22 26,7 C 29,4 C 24,4 C 56 % 1018,8 hPa 0,0 l/m 2 min 0 min 508 W/m 4,5 km/h (1 Bft) 100,00 %
01.08.2018 11:24 26,7 C 30,0 C 24,4 C 56 % 1018,8 hPa 0,0 l/m 2 min 0 min 476 W/m 4,5 km/h (1 Bft) 100,00 %
01.08.2018 11:26 26,8 C 30,0 C 24,4 C 57 % 1018,8 hPa 0,0 l/m 2 min 0 min 480 W/m 6,8 km/h (2 Bft) 95,83 %
01.08.2018 11:28 26,8 C 30,6 C 25,0 C 56 % 1018,8 hPa 0,0 l/m 2 min 0 min 520 W/m 6,8 km/h (2 Bft) 97,87 %
01.08.2018 11:30 26,9 C 31,1 C 25,0 C 56 % 1018,9 hPa 0,0 l/m 2 min 0 min 586 W/m 11,3 km/h (2 Bft) 100,00 %
01.08.2018 11:32 26,9 C 31,7 C 25,0 C 56 % 1018,8 hPa 0,0 l/m 2 min 0 min 585 W/m 6,8 km/h (2 Bft) 97,87 %
01.08.2018 11:34 27,0 C 32,2 C 25,0 C 56 % 1018,8 hPa 0,0 l/m 2 min 0 min 611 W/m 4,5 km/h (1 Bft) 100,00 %
01.08.2018 11:36 27,1 C 32,2 C 25,0 C 57 % 1018,8 hPa 0,0 l/m 2 min 0 min 579 W/m 4,5 km/h (1 Bft) 91,67 %
01.08.2018 11:38 27,1 C 31,7 C 25,0 C 55 % 1018,8 hPa 0,0 l/m 2 min 0 min 537 W/m 9,0 km/h (2 Bft) 97,87 %
01.08.2018 11:40 27,2 C 31,1 C 25,0 C 55 % 1018,8 hPa 0,0 l/m 2 min 0 min 509 W/m 11,3 km/h (2 Bft) 95,65 %
01.08.2018 11:42 27,2 C 30,6 C 25,0 C 55 % 1018,7 hPa 0,0 l/m 2 min 0 min 462 W/m 6,8 km/h (2 Bft) 93,62 %
01.08.2018 11:44 27,3 C 30,0 C 25,0 C 55 % 1018,8 hPa 0,0 l/m 2 min 0 min 416 W/m 9,0 km/h (2 Bft) 93,62 %
01.08.2018 11:46 27,3 C 29,4 C 25,0 C 55 % 1018,8 hPa 0,0 l/m 2 min 0 min 413 W/m 11,3 km/h (2 Bft) 93,62 %
01.08.2018 11:48 27,3 C 29,4 C 25,0 C 55 % 1018,9 hPa 0,0 l/m 2 min 0 min 438 W/m 6,8 km/h (2 Bft) 93,62 %
01.08.2018 11:50 27,3 C 30,0 C 25,0 C 55 % 1018,8 hPa 0,0 l/m 2 min 0 min 471 W/m 6,8 km/h (2 Bft) 93,62 %
01.08.2018 11:52 27,3 C 30,0 C 25,0 C 55 % 1018,8 hPa 0,0 l/m 2 min 0 min 504 W/m 6,8 km/h (2 Bft) 95,74 %
01.08.2018 11:54 27,3 C 30,6 C 25,0 C 55 % 1018,7 hPa 0,0 l/m 2 min 0 min 535 W/m 6,8 km/h (2 Bft) 93,62 %
01.08.2018 11:56 27,4 C 30,0 C 25,0 C 54 % 1018,8 hPa 0,0 l/m 2 min 0 min 558 W/m 9,0 km/h (2 Bft) 95,74 %
01.08.2018 11:58 27,4 C 30,6 C 25,6 C 56 % 1018,9 hPa 0,0 l/m 2 min 0 min 534 W/m 9,0 km/h (2 Bft) 93,48 %
01.08.2018 12:00 27,4 C 31,1 C 25,6 C 55 % 1018,9 hPa 0,0 l/m 2 min 0 min 524 W/m 11,3 km/h (2 Bft) 93,62 %
01.08.2018 12:02 27,4 C 30,6 C 25,6 C 55 % 1018,9 hPa 0,0 l/m 2 min 0 min 491 W/m 4,5 km/h (1 Bft) 93,88 %
01.08.2018 12:04 27,5 C 30,6 C 25,6 C 55 % 1018,9 hPa 0,0 l/m 2 min 0 min 450 W/m 6,8 km/h (2 Bft) 94,29 %
01.08.2018 12:06 27,5 C 30,0 C 25,0 C 55 % 1018,9 hPa 0,0 l/m 2 min 0 min 438 W/m 6,8 km/h (2 Bft) 94,44 %
01.08.2018 12:08 27,6 C 29,4 C 25,0 C 55 % 1018,9 hPa 0,0 l/m 2 min 0 min 420 W/m 6,8 km/h (2 Bft) 96,55 %
01.08.2018 12:10 27,6 C 29,4 C 25,0 C 56 % 1018,8 hPa 0,0 l/m 2 min 0 min 421 W/m 4,5 km/h (1 Bft) 95,74 %
01.08.2018 12:12 27,6 C 29,4 C 25,0 C 56 % 1018,9 hPa 0,0 l/m 2 min 0 min 423 W/m 9,0 km/h (2 Bft) 93,62 %
01.08.2018 12:14 27,6 C 29,4 C 25,0 C 55 % 1018,9 hPa 0,0 l/m 2 min 0 min 427 W/m 6,8 km/h (2 Bft) 95,65 %
01.08.2018 12:16 27,6 C 29,4 C 25,0 C 55 % 1018,9 hPa 0,0 l/m 2 min 0 min 418 W/m 6,8 km/h (2 Bft) 93,75 %
01.08.2018 12:18 27,6 C 29,4 C 25,0 C 56 % 1018,9 hPa 0,0 l/m 2 min 0 min 409 W/m 6,8 km/h (2 Bft) 97,87 %
01.08.2018 12:20 27,6 C 29,4 C 25,0 C 56 % 1018,8 hPa 0,0 l/m 0 min 0 min 379 W/m 6,8 km/h (2 Bft) 95,74 %
01.08.2018 12:22 27,6 C 28,9 C 25,0 C 56 % 1018,9 hPa 0,0 l/m 0 min 0 min 381 W/m 6,8 km/h (2 Bft) 92,45 %
01.08.2018 12:24 27,6 C 28,9 C 25,0 C 55 % 1018,9 hPa 0,0 l/m 0 min 0 min 374 W/m 6,8 km/h (2 Bft) 97,87 %
01.08.2018 12:26 27,6 C 28,9 C 25,0 C 55 % 1019,0 hPa 0,0 l/m 0 min 0 min 369 W/m 6,8 km/h (2 Bft) 93,88 %
01.08.2018 12:28 27,5 C 27,8 C 25,0 C 53 % 1018,9 hPa 0,0 l/m 0 min 0 min 366 W/m 9,0 km/h (2 Bft) 97,87 %
01.08.2018 12:30 27,5 C 28,3 C 25,0 C 55 % 1018,9 hPa 0,0 l/m 0 min 0 min 358 W/m 9,0 km/h (2 Bft) 97,87 %
01.08.2018 12:32 27,5 C 28,3 C 25,0 C 55 % 1018,9 hPa 0,0 l/m 0 min 0 min 349 W/m 9,0 km/h (2 Bft) 97,37 %
01.08.2018 12:34 27,5 C 28,3 C 25,0 C 55 % 1018,9 hPa 0,0 l/m 0 min 0 min 341 W/m 9,0 km/h (2 Bft) 95,74 %
01.08.2018 12:36 27,4 C 27,8 C 25,0 C 54 % 1018,8 hPa 0,0 l/m 0 min 0 min 330 W/m 9,0 km/h (2 Bft) 97,87 %
01.08.2018 12:38 27,4 C 27,8 C 25,0 C 55 % 1018,8 hPa 0,0 l/m 0 min 0 min 322 W/m 9,0 km/h (2 Bft) 100,00 %
01.08.2018 12:40 27,4 C 27,8 C 24,4 C 55 % 1018,7 hPa 0,0 l/m 0 min 0 min 313 W/m 6,8 km/h (2 Bft) 100,00 %
01.08.2018 12:42 27,4 C 26,7 C 21,7 C 58 % 1018,8 hPa 0,0 l/m 0 min 0 min 308 W/m 6,8 km/h (2 Bft) 100,00 %
01.08.2018 12:44 27,4 C 25,0 C 21,1 C 57 % 1018,8 hPa 0,0 l/m 0 min 0 min 303 W/m 6,8 km/h (2 Bft) 97,87 %
01.08.2018 12:46 27,3 C 23,9 C 20,6 C 58 % 1018,8 hPa 0,0 l/m 0 min 0 min 302 W/m 4,5 km/h (1 Bft) 97,87 %
01.08.2018 12:48 27,3 C 23,3 C 20,6 C 57 % 1018,8 hPa 0,0 l/m 0 min 0 min 304 W/m 4,5 km/h (1 Bft) 100,00 %
01.08.2018 12:50 27,2 C 23,3 C 20,0 C 57 % 1018,7 hPa 0,0 l/m 0 min 0 min 309 W/m 4,5 km/h (1 Bft) 100,00 %
01.08.2018 12:52 27,2 C 23,9 C 20,0 C 57 % 1018,7 hPa 0,0 l/m 0 min 0 min 319 W/m 2,3 km/h (1 Bft) 100,00 %
01.08.2018 12:54 27,1 C 23,9 C 19,4 C 57 % 1018,7 hPa 0,0 l/m 0 min 0 min 331 W/m 4,5 km/h (1 Bft) 100,00 %
01.08.2018 12:56 27,1 C 22,8 C 19,4 C 59 % 1018,6 hPa 0,0 l/m 0 min 0 min 341 W/m 4,5 km/h (1 Bft) 100,00 %
01.08.2018 12:58 27,0 C 22,2 C 19,4 C 58 % 1018,6 hPa 0,0 l/m 0 min 0 min 356 W/m 4,5 km/h (1 Bft) 100,00 %
01.08.2018 13:00 26,9 C 21,1 C 18,9 C 58 % 1018,6 hPa 0,0 l/m 0 min 0 min 371 W/m 4,5 km/h (1 Bft) 100,00 %
01.08.2018 13:02 26,9 C 21,1 C 18,9 C 58 % 1018,6 hPa 0,0 l/m 0 min 0 min 382 W/m 6,8 km/h (2 Bft) 98,04 %
01.08.2018 13:04 26,8 C 21,1 C 18,9 C 58 % 1018,6 hPa 0,0 l/m 0 min 0 min 392 W/m 4,5 km/h (1 Bft) 97,83 %
01.08.2018 13:06 26,8 C 21,7 C 18,9 C 59 % 1018,6 hPa 0,0 l/m 2 min 0 min 403 W/m 4,5 km/h (1 Bft) 100,00 %
01.08.2018 13:08 26,7 C 21,1 C 18,3 C 58 % 1018,6 hPa 0,0 l/m 2 min 0 min 427 W/m 6,8 km/h (2 Bft) 100,00 %
01.08.2018 13:10 26,7 C 21,1 C 18,9 C 58 % 1018,5 hPa 0,0 l/m 2 min 0 min 429 W/m 6,8 km/h (2 Bft) 100,00 %
01.08.2018 13:12 26,6 C 21,1 C 19,4 C 59 % 1018,5 hPa 0,0 l/m 2 min 0 min 430 W/m 6,8 km/h (2 Bft) 100,00 %
01.08.2018 13:14 26,6 C 21,7 C 19,4 C 58 % 1018,4 hPa 0,0 l/m 2 min 0 min 431 W/m 11,3 km/h (2 Bft) 100,00 %
01.08.2018 13:16 26,5 C 21,7 C 18,9 C 58 % 1018,4 hPa 0,0 l/m 2 min 0 min 432 W/m 6,8 km/h (2 Bft) 100,00 %
01.08.2018 13:18 26,5 C 21,7 C 18,9 C 60 % 1018,4 hPa 0,0 l/m 2 min 0 min 417 W/m 9,0 km/h (2 Bft) 100,00 %
01.08.2018 13:20 26,4 C 21,7 C 18,9 C 59 % 1018,4 hPa 0,0 l/m 0 min 0 min 401 W/m 9,0 km/h (2 Bft) 97,87 %
01.08.2018 13:22 26,4 C 21,1 C 18,9 C 60 % 1018,4 hPa 0,0 l/m 2 min 0 min 405 W/m 9,0 km/h (2 Bft) 100,00 %
01.08.2018 13:24 26,4 C 21,1 C 18,3 C 59 % 1018,4 hPa 0,0 l/m 2 min 0 min 405 W/m 6,8 km/h (2 Bft) 100,00 %
01.08.2018 13:26 26,4 C 21,1 C 18,9 C 60 % 1018,5 hPa 0,0 l/m 0 min 0 min 396 W/m 4,5 km/h (1 Bft) 100,00 %
01.08.2018 13:28 26,3 C 20,6 C 18,3 C 60 % 1018,5 hPa 0,0 l/m 0 min 0 min 397 W/m 6,8 km/h (2 Bft) 97,87 %
01.08.2018 13:30 26,3 C 20,6 C 18,3 C 61 % 1018,4 hPa 0,0 l/m 0 min 0 min 395 W/m 6,8 km/h (2 Bft) 100,00 %
01.08.2018 13:32 26,3 C 20,6 C 18,3 C 59 % 1018,4 hPa 0,0 l/m 0 min 0 min 394 W/m 6,8 km/h (2 Bft) 100,00 %
01.08.2018 13:34 26,3 C 20,6 C 18,3 C 59 % 1018,4 hPa 0,0 l/m 0 min 0 min 400 W/m 6,8 km/h (2 Bft) 100,00 %
01.08.2018 13:36 26,3 C 21,1 C 18,3 C 61 % 1018,4 hPa 0,0 l/m 2 min 0 min 409 W/m 4,5 km/h (1 Bft) 97,87 %
01.08.2018 13:38 26,3 C 21,1 C 18,9 C 62 % 1018,3 hPa 0,0 l/m 0 min 0 min 401 W/m 4,5 km/h (1 Bft) 100,00 %
01.08.2018 13:40 26,3 C 21,1 C 18,9 C 61 % 1018,3 hPa 0,0 l/m 0 min 0 min 399 W/m 4,5 km/h (1 Bft) 95,74 %
01.08.2018 13:42 26,3 C 21,1 C 18,9 C 62 % 1018,3 hPa 0,0 l/m 2 min 0 min 414 W/m 6,8 km/h (2 Bft) 97,87 %
01.08.2018 13:44 26,3 C 21,1 C 18,9 C 61 % 1018,3 hPa 0,0 l/m 2 min 0 min 419 W/m 4,5 km/h (1 Bft) 97,87 %
01.08.2018 13:46 26,2 C 20,6 C 18,9 C 59 % 1018,3 hPa 0,2 l/m 2 min 0 min 421 W/m 6,8 km/h (2 Bft) 97,87 %
01.08.2018 13:48 26,2 C 20,6 C 18,9 C 62 % 1018,2 hPa 0,0 l/m 2 min 0 min 437 W/m 6,8 km/h (2 Bft) 97,87 %
01.08.2018 13:50 26,2 C 20,6 C 18,9 C 61 % 1018,4 hPa 0,0 l/m 2 min 0 min 437 W/m 6,8 km/h (2 Bft) 97,87 %
01.08.2018 13:52 26,2 C 20,6 C 18,9 C 61 % 1018,3 hPa 0,0 l/m 2 min 0 min 429 W/m 6,8 km/h (2 Bft) 97,87 %
01.08.2018 13:54 26,2 C 20,6 C 18,9 C 61 % 1018,3 hPa 0,0 l/m 2 min 0 min 418 W/m 6,8 km/h (2 Bft) 97,87 %
01.08.2018 13:56 26,2 C 20,6 C 18,9 C 63 % 1018,3 hPa 0,0 l/m 2 min 0 min 427 W/m 4,5 km/h (1 Bft) 97,87 %
01.08.2018 13:58 26,2 C 20,6 C 18,9 C 63 % 1018,3 hPa 0,0 l/m 2 min 0 min 426 W/m 6,8 km/h (2 Bft) 97,83 %
01.08.2018 14:00 26,2 C 20,6 C 19,4 C 63 % 1018,4 hPa 0,0 l/m 0 min 0 min 401 W/m 9,0 km/h (2 Bft) 97,87 %
01.08.2018 14:02 26,2 C 20,6 C 19,4 C 61 % 1018,4 hPa 0,0 l/m 0 min 0 min 398 W/m 4,5 km/h (1 Bft) 97,87 %
01.08.2018 14:04 26,2 C 20,6 C 19,4 C 61 % 1018,4 hPa 0,0 l/m 0 min 0 min 402 W/m 4,5 km/h (1 Bft) 97,87 %
01.08.2018 14:06 26,2 C 20,6 C 19,4 C 61 % 1018,3 hPa 0,0 l/m 2 min 0 min 413 W/m 9,0 km/h (2 Bft) 97,87 %
01.08.2018 14:08 26,2 C 21,1 C 19,4 C 61 % 1018,4 hPa 0,0 l/m 2 min 0 min 469 W/m 11,3 km/h (2 Bft) 97,87 %
01.08.2018 14:10 26,2 C 21,7 C 19,4 C 60 % 1018,3 hPa 0,0 l/m 2 min 0 min 503 W/m 9,0 km/h (2 Bft) 97,83 %
01.08.2018 14:12 26,2 C 22,2 C 20,0 C 61 % 1018,3 hPa 0,0 l/m 2 min 0 min 537 W/m 6,8 km/h (2 Bft) 97,87 %
01.08.2018 14:14 26,1 C 22,2 C 21,1 C 60 % 1018,3 hPa 0,0 l/m 2 min 0 min 520 W/m 11,3 km/h (2 Bft) 93,62 %
01.08.2018 14:16 26,2 C 22,8 C 21,7 C 60 % 1018,3 hPa 0,0 l/m 2 min 0 min 501 W/m 4,5 km/h (1 Bft) 95,83 %
01.08.2018 14:18 26,2 C 22,8 C 22,8 C 61 % 1018,3 hPa 0,0 l/m 2 min 0 min 532 W/m 6,8 km/h (2 Bft) 95,24 %
01.08.2018 14:20 26,2 C 22,8 C 23,9 C 60 % 1018,3 hPa 0,0 l/m 2 min 0 min 553 W/m 6,8 km/h (2 Bft) 95,74 %
01.08.2018 14:22 26,2 C 22,8 C 23,9 C 60 % 1018,3 hPa 0,0 l/m 2 min 0 min 585 W/m 6,8 km/h (2 Bft) 95,74 %
01.08.2018 14:24 26,2 C 23,3 C 24,4 C 61 % 1018,3 hPa 0,0 l/m 2 min 0 min 588 W/m 6,8 km/h (2 Bft) 93,62 %
01.08.2018 14:26 26,3 C 23,3 C 24,4 C 60 % 1018,3 hPa 0,0 l/m 2 min 0 min 569 W/m 9,0 km/h (2 Bft) 95,65 %
01.08.2018 14:28 26,3 C 23,3 C 25,0 C 58 % 1018,3 hPa 0,0 l/m 2 min 0 min 551 W/m 6,8 km/h (2 Bft) 95,74 %
01.08.2018 14:30 26,4 C 23,3 C 25,0 C 58 % 1018,3 hPa 0,0 l/m 2 min 0 min 538 W/m 11,3 km/h (2 Bft) 95,74 %
01.08.2018 14:32 26,4 C 23,9 C 25,0 C 58 % 1018,3 hPa 0,0 l/m 2 min 0 min 515 W/m 4,5 km/h (1 Bft) 93,88 %
01.08.2018 14:34 26,5 C 23,9 C 25,0 C 59 % 1018,3 hPa 0,0 l/m 2 min 0 min 487 W/m 6,8 km/h (2 Bft) 95,74 %
01.08.2018 14:36 26,6 C 23,9 C 25,6 C 57 % 1018,3 hPa 0,0 l/m 2 min 0 min 460 W/m 11,3 km/h (2 Bft) 95,92 %
01.08.2018 14:38 26,7 C 23,9 C 25,0 C 59 % 1018,3 hPa 0,0 l/m 2 min 0 min 436 W/m 6,8 km/h (2 Bft) 95,74 %
01.08.2018 14:40 26,7 C 23,9 C 25,0 C 57 % 1018,3 hPa 0,0 l/m 2 min 0 min 416 W/m 6,8 km/h (2 Bft) 93,62 %
01.08.2018 14:42 26,8 C 24,4 C 25,0 C 57 % 1018,3 hPa 0,0 l/m 0 min 0 min 388 W/m 9,0 km/h (2 Bft) 97,87 %
01.08.2018 14:44 26,8 C 25,6 C 25,0 C 57 % 1018,3 hPa 0,0 l/m 0 min 0 min 380 W/m 6,8 km/h (2 Bft) 95,65 %
01.08.2018 14:46 26,9 C 27,2 C 25,0 C 57 % 1018,3 hPa 0,0 l/m 0 min 0 min 379 W/m 6,8 km/h (2 Bft) 95,24 %
01.08.2018 14:48 26,9 C 27,8 C 25,6 C 56 % 1018,3 hPa 0,0 l/m 0 min 0 min 390 W/m 6,8 km/h (2 Bft) 95,74 %
01.08.2018 14:50 26,9 C 27,8 C 25,0 C 57 % 1018,3 hPa 0,0 l/m 2 min 0 min 397 W/m 6,8 km/h (2 Bft) 91,38 %
01.08.2018 14:52 27,0 C 28,3 C 25,0 C 58 % 1018,3 hPa 0,0 l/m 2 min 0 min 403 W/m 4,5 km/h (1 Bft) 97,22 %
01.08.2018 14:54 27,1 C 28,3 C 25,0 C 57 % 1018,3 hPa 0,0 l/m 2 min 0 min 431 W/m 6,8 km/h (2 Bft) 95,74 %
01.08.2018 14:56 27,1 C 28,3 C 25,6 C 56 % 1018,3 hPa 0,0 l/m 2 min 0 min 485 W/m 6,8 km/h (2 Bft) 98,00 %
01.08.2018 14:58 27,1 C 28,9 C 25,6 C 57 % 1018,3 hPa 0,0 l/m 2 min 0 min 490 W/m 6,8 km/h (2 Bft) 95,74 %
01.08.2018 15:00 27,2 C 28,9 C 25,6 C 56 % 1018,3 hPa 0,0 l/m 2 min 0 min 565 W/m 6,8 km/h (2 Bft) 97,83 %
01.08.2018 15:02 27,2 C 28,9 C 25,6 C 57 % 1018,3 hPa 0,0 l/m 2 min 0 min 535 W/m 4,5 km/h (1 Bft) 97,87 %
01.08.2018 15:04 27,2 C 28,9 C 25,6 C 55 % 1018,3 hPa 0,0 l/m 2 min 0 min 479 W/m 6,8 km/h (2 Bft) 95,74 %
01.08.2018 15:06 27,3 C 28,9 C 25,6 C 56 % 1018,3 hPa 0,0 l/m 2 min 0 min 450 W/m 9,0 km/h (2 Bft) 95,92 %
01.08.2018 15:08 27,3 C 28,9 C 25,6 C 56 % 1018,3 hPa 0,0 l/m 2 min 0 min 502 W/m 6,8 km/h (2 Bft) 97,83 %
01.08.2018 15:10 27,3 C 29,4 C 25,6 C 56 % 1018,3 hPa 0,0 l/m 2 min 0 min 564 W/m 6,8 km/h (2 Bft) 97,87 %
01.08.2018 15:12 27,4 C 29,4 C 26,1 C 56 % 1018,3 hPa 0,0 l/m 2 min 0 min 576 W/m 6,8 km/h (2 Bft) 97,87 %
01.08.2018 15:14 27,4 C 29,4 C 26,1 C 57 % 1018,3 hPa 0,0 l/m 2 min 0 min 577 W/m 4,5 km/h (1 Bft) 97,87 %
01.08.2018 15:16 27,5 C 29,4 C 26,1 C 56 % 1018,3 hPa 0,0 l/m 2 min 0 min 528 W/m 9,0 km/h (2 Bft) 97,87 %
01.08.2018 15:18 27,6 C 29,4 C 26,1 C 57 % 1018,2 hPa 0,0 l/m 2 min 0 min 553 W/m 6,8 km/h (2 Bft) 97,87 %
01.08.2018 15:20 27,6 C 29,4 C 26,1 C 56 % 1018,3 hPa 0,0 l/m 2 min 0 min 554 W/m 6,8 km/h (2 Bft) 97,83 %
01.08.2018 15:22 27,7 C 29,4 C 26,1 C 56 % 1018,3 hPa 0,0 l/m 2 min 0 min 538 W/m 2,3 km/h (1 Bft) 95,74 %
01.08.2018 15:24 27,7 C 28,9 C 26,1 C 53 % 1018,2 hPa 0,0 l/m 2 min 0 min 535 W/m 4,5 km/h (1 Bft) 95,74 %
01.08.2018 15:26 27,7 C 28,9 C 26,1 C 54 % 1018,2 hPa 0,0 l/m 2 min 0 min 492 W/m 4,5 km/h (1 Bft) 97,87 %
01.08.2018 15:28 27,8 C 29,4 C 26,1 C 56 % 1018,2 hPa 0,0 l/m 2 min 0 min 538 W/m 4,5 km/h (1 Bft) 97,87 %
01.08.2018 15:30 27,8 C 29,4 C 26,1 C 56 % 1018,2 hPa 0,0 l/m 2 min 0 min 441 W/m 6,8 km/h (2 Bft) 97,87 %
01.08.2018 15:32 27,9 C 29,4 C 26,1 C 55 % 1018,3 hPa 0,0 l/m 2 min 0 min 511 W/m 4,5 km/h (1 Bft) 97,62 %
01.08.2018 15:34 27,9 C 29,4 C 26,1 C 54 % 1018,3 hPa 0,0 l/m 2 min 0 min 421 W/m 11,3 km/h (2 Bft) 97,87 %
01.08.2018 15:36 27,9 C 29,4 C 26,1 C 55 % 1018,3 hPa 0,0 l/m 2 min 0 min 428 W/m 6,8 km/h (2 Bft) 97,83 %
01.08.2018 15:38 28,0 C 29,4 C 26,1 C 55 % 1018,2 hPa 0,0 l/m 2 min 0 min 449 W/m 6,8 km/h (2 Bft) 97,87 %
01.08.2018 15:40 28,1 C 29,4 C 26,1 C 55 % 1018,2 hPa 0,0 l/m 2 min 0 min 421 W/m 2,3 km/h (1 Bft) 97,87 %
01.08.2018 15:42 28,1 C 29,4 C 26,1 C 56 % 1018,2 hPa 0,0 l/m 2 min 0 min 408 W/m 11,3 km/h (2 Bft) 97,87 %
01.08.2018 15:44 28,1 C 29,4 C 26,1 C 55 % 1018,2 hPa 0,0 l/m 2 min 0 min 386 W/m 9,0 km/h (2 Bft) 96,00 %
01.08.2018 15:46 28,2 C 29,4 C 26,1 C 55 % 1018,1 hPa 0,0 l/m 2 min 0 min 367 W/m 6,8 km/h (2 Bft) 97,87 %
01.08.2018 15:48 28,2 C 29,4 C 26,1 C 55 % 1018,1 hPa 0,0 l/m 0 min 0 min 360 W/m 4,5 km/h (1 Bft) 97,83 %
01.08.2018 15:50 28,2 C 29,4 C 26,1 C 54 % 1018,0 hPa 0,0 l/m 2 min 0 min 364 W/m 9,0 km/h (2 Bft) 97,87 %
01.08.2018 15:52 28,2 C 28,9 C 26,1 C 55 % 1018,0 hPa 0,0 l/m 2 min 0 min 370 W/m 6,8 km/h (2 Bft) 95,74 %
01.08.2018 15:54 28,2 C 29,4 C 26,1 C 55 % 1018,0 hPa 0,0 l/m 2 min 0 min 379 W/m 6,8 km/h (2 Bft) 97,87 %
01.08.2018 15:56 28,3 C 29,4 C 26,1 C 55 % 1018,0 hPa 0,0 l/m 2 min 0 min 437 W/m 6,8 km/h (2 Bft) 93,75 %
01.08.2018 15:58 28,3 C 30,0 C 26,1 C 55 % 1018,0 hPa 0,0 l/m 2 min 0 min 571 W/m 4,5 km/h (1 Bft) 97,87 %
01.08.2018 16:00 28,3 C 30,6 C 26,7 C 56 % 1018,0 hPa 0,0 l/m 2 min 0 min 614 W/m 4,5 km/h (1 Bft) 97,87 %
01.08.2018 16:02 28,3 C 30,6 C 26,7 C 55 % 1017,9 hPa 0,0 l/m 2 min 0 min 559 W/m 9,0 km/h (2 Bft) 97,56 %
01.08.2018 16:04 28,3 C 30,0 C 26,7 C 53 % 1017,9 hPa 0,0 l/m 2 min 0 min 571 W/m 6,8 km/h (2 Bft) 97,87 %
01.08.2018 16:06 28,4 C 30,0 C 26,7 C 53 % 1017,9 hPa 0,0 l/m 2 min 0 min 509 W/m 9,0 km/h (2 Bft) 100,00 %
01.08.2018 16:08 28,4 C 30,6 C 26,1 C 54 % 1017,9 hPa 0,0 l/m 2 min 0 min 479 W/m 2,3 km/h (1 Bft) 100,00 %
01.08.2018 16:10 28,4 C 30,6 C 26,7 C 54 % 1017,9 hPa 0,0 l/m 2 min 0 min 482 W/m 9,0 km/h (2 Bft) 100,00 %
01.08.2018 16:12 28,5 C 30,6 C 26,7 C 54 % 1017,9 hPa 0,0 l/m 2 min 0 min 523 W/m 6,8 km/h (2 Bft) 100,00 %
01.08.2018 16:14 28,5 C 30,6 C 26,7 C 53 % 1017,8 hPa 0,0 l/m 2 min 0 min 512 W/m 4,5 km/h (1 Bft) 100,00 %
01.08.2018 16:16 28,6 C 30,6 C 26,7 C 53 % 1017,8 hPa 0,0 l/m 2 min 0 min 514 W/m 2,3 km/h (1 Bft) 100,00 %
01.08.2018 16:18 28,6 C 30,6 C 26,7 C 52 % 1017,8 hPa 0,0 l/m 2 min 0 min 439 W/m 2,3 km/h (1 Bft) 100,00 %
01.08.2018 16:20 28,7 C 30,6 C 26,7 C 54 % 1017,8 hPa 0,0 l/m 2 min 0 min 427 W/m 6,8 km/h (2 Bft) 100,00 %
01.08.2018 16:22 28,7 C 30,6 C 26,7 C 54 % 1017,8 hPa 0,0 l/m 2 min 0 min 407 W/m 6,8 km/h (2 Bft) 100,00 %
01.08.2018 16:24 28,7 C 30,0 C 26,7 C 54 % 1017,8 hPa 0,0 l/m 2 min 0 min 383 W/m 4,5 km/h (1 Bft) 100,00 %
01.08.2018 16:26 28,7 C 30,0 C 26,7 C 53 % 1017,8 hPa 0,0 l/m 2 min 0 min 401 W/m 4,5 km/h (1 Bft) 100,00 %
01.08.2018 16:28 28,7 C 30,6 C 26,7 C 54 % 1017,8 hPa 0,0 l/m 2 min 0 min 446 W/m 6,8 km/h (2 Bft) 100,00 %
01.08.2018 16:30 28,8 C 30,6 C 26,7 C 53 % 1017,9 hPa 0,0 l/m 2 min 0 min 464 W/m 6,8 km/h (2 Bft) 100,00 %
01.08.2018 16:32 28,8 C 30,6 C 26,7 C 54 % 1017,8 hPa 0,0 l/m 2 min 0 min 438 W/m 4,5 km/h (1 Bft) 100,00 %
01.08.2018 16:34 28,8 C 30,6 C 26,7 C 54 % 1017,8 hPa 0,0 l/m 2 min 0 min 461 W/m 4,5 km/h (1 Bft) 97,87 %
01.08.2018 16:36 28,8 C 31,1 C 26,7 C 54 % 1017,8 hPa 0,0 l/m 2 min 0 min 556 W/m 4,5 km/h (1 Bft) 100,00 %
01.08.2018 16:38 28,8 C 31,1 C 26,7 C 53 % 1017,8 hPa 0,0 l/m 2 min 0 min 533 W/m 6,8 km/h (2 Bft) 100,00 %
01.08.2018 16:40 28,9 C 32,2 C 26,7 C 54 % 1017,8 hPa 0,0 l/m 2 min 0 min 644 W/m 4,5 km/h (1 Bft) 100,00 %
01.08.2018 16:42 28,9 C 32,2 C 26,7 C 54 % 1017,8 hPa 0,0 l/m 2 min 0 min 626 W/m 6,8 km/h (2 Bft) 100,00 %
01.08.2018 16:44 28,9 C 32,8 C 27,2 C 54 % 1017,8 hPa 0,0 l/m 2 min 0 min 622 W/m 4,5 km/h (1 Bft) 95,74 %
01.08.2018 16:46 29,0 C 32,8 C 27,2 C 53 % 1017,7 hPa 0,0 l/m 2 min 0 min 581 W/m 4,5 km/h (1 Bft) 97,87 %
01.08.2018 16:48 29,1 C 32,2 C 27,2 C 53 % 1017,7 hPa 0,0 l/m 2 min 0 min 533 W/m 4,5 km/h (1 Bft) 97,87 %
01.08.2018 16:50 29,1 C 31,7 C 27,2 C 52 % 1017,7 hPa 0,0 l/m 2 min 0 min 498 W/m 4,5 km/h (1 Bft) 96,23 %
01.08.2018 16:52 29,2 C 31,7 C 26,7 C 54 % 1017,7 hPa 0,0 l/m 2 min 0 min 487 W/m 4,5 km/h (1 Bft) 97,87 %
01.08.2018 16:54 29,2 C 31,7 C 27,2 C 55 % 1017,8 hPa 0,0 l/m 2 min 0 min 466 W/m 4,5 km/h (1 Bft) 97,14 %
01.08.2018 16:56 29,2 C 31,7 C 27,2 C 54 % 1017,8 hPa 0,0 l/m 2 min 0 min 452 W/m 4,5 km/h (1 Bft) 97,87 %
01.08.2018 16:58 29,2 C 31,1 C 27,2 C 52 % 1017,7 hPa 0,0 l/m 2 min 0 min 424 W/m 6,8 km/h (2 Bft) 97,83 %
01.08.2018 17:00 29,3 C 30,6 C 27,2 C 52 % 1017,7 hPa 0,0 l/m 2 min 0 min 380 W/m 4,5 km/h (1 Bft) 95,74 %
01.08.2018 17:02 29,3 C 30,6 C 27,2 C 53 % 1017,7 hPa 0,0 l/m 2 min 0 min 343 W/m 2,3 km/h (1 Bft) 95,74 %
01.08.2018 17:04 29,3 C 30,6 C 26,7 C 54 % 1017,7 hPa 0,0 l/m 2 min 0 min 325 W/m 6,8 km/h (2 Bft) 93,62 %
01.08.2018 17:06 29,3 C 30,0 C 26,7 C 51 % 1017,7 hPa 0,0 l/m 2 min 0 min 318 W/m 11,3 km/h (2 Bft) 95,74 %
01.08.2018 17:08 29,3 C 30,0 C 26,7 C 51 % 1017,6 hPa 0,0 l/m 2 min 0 min 341 W/m 6,8 km/h (2 Bft) 92,00 %
01.08.2018 17:10 29,4 C 30,0 C 26,7 C 51 % 1017,6 hPa 0,0 l/m 2 min 0 min 411 W/m 4,5 km/h (1 Bft) 95,65 %
01.08.2018 17:12 29,4 C 30,6 C 27,2 C 51 % 1017,6 hPa 0,0 l/m 2 min 0 min 470 W/m 4,5 km/h (1 Bft) 95,74 %
01.08.2018 17:14 29,4 C 30,0 C 26,7 C 50 % 1017,6 hPa 0,0 l/m 2 min 0 min 449 W/m 9,0 km/h (2 Bft) 95,74 %
01.08.2018 17:16 29,4 C 30,0 C 27,2 C 52 % 1017,6 hPa 0,0 l/m 2 min 0 min 437 W/m 0,0 km/h (0 Bft) 93,62 %
01.08.2018 17:18 29,4 C 30,6 C 27,2 C 52 % 1017,6 hPa 0,0 l/m 2 min 0 min 415 W/m 4,5 km/h (1 Bft) 95,74 %
01.08.2018 17:20 29,4 C 30,6 C 27,2 C 53 % 1017,7 hPa 0,0 l/m 2 min 0 min 452 W/m 6,8 km/h (2 Bft) 95,74 %
01.08.2018 17:22 29,4 C 30,6 C 26,7 C 52 % 1017,6 hPa 0,0 l/m 2 min 0 min 538 W/m 4,5 km/h (1 Bft) 95,65 %
01.08.2018 17:24 29,4 C 31,1 C 27,2 C 52 % 1017,6 hPa 0,0 l/m 2 min 0 min 555 W/m 6,8 km/h (2 Bft) 93,88 %
01.08.2018 17:26 29,4 C 30,6 C 27,2 C 52 % 1017,5 hPa 0,0 l/m 2 min 0 min 516 W/m 6,8 km/h (2 Bft) 95,74 %
01.08.2018 17:28 29,5 C 30,6 C 27,2 C 52 % 1017,4 hPa 0,0 l/m 2 min 0 min 416 W/m 4,5 km/h (1 Bft) 95,74 %
01.08.2018 17:30 29,5 C 30,6 C 27,2 C 52 % 1017,4 hPa 0,0 l/m 2 min 0 min 376 W/m 4,5 km/h (1 Bft) 93,62 %
01.08.2018 17:32 29,5 C 30,0 C 27,2 C 51 % 1017,4 hPa 0,0 l/m 2 min 0 min 340 W/m 4,5 km/h (1 Bft) 94,29 %
01.08.2018 17:34 29,4 C 30,0 C 26,7 C 52 % 1017,4 hPa 0,0 l/m 2 min 0 min 320 W/m 6,8 km/h (2 Bft) 96,23 %
01.08.2018 17:36 29,4 C 29,4 C 26,7 C 52 % 1017,5 hPa 0,0 l/m 2 min 0 min 343 W/m 6,8 km/h (2 Bft) 97,87 %
01.08.2018 17:38 29,4 C 29,4 C 26,7 C 51 % 1017,5 hPa 0,0 l/m 2 min 0 min 333 W/m 4,5 km/h (1 Bft) 97,87 %
01.08.2018 17:40 29,4 C 29,4 C 26,7 C 52 % 1017,5 hPa 0,0 l/m 2 min 0 min 319 W/m 2,3 km/h (1 Bft) 96,00 %
01.08.2018 17:42 29,4 C 29,4 C 26,7 C 52 % 1017,4 hPa 0,0 l/m 2 min 0 min 323 W/m 4,5 km/h (1 Bft) 97,96 %
01.08.2018 17:44 29,4 C 29,4 C 26,7 C 54 % 1017,4 hPa 0,0 l/m 2 min 0 min 306 W/m 4,5 km/h (1 Bft) 97,87 %
01.08.2018 17:46 29,4 C 29,4 C 26,7 C 52 % 1017,4 hPa 0,0 l/m 2 min 0 min 272 W/m 2,3 km/h (1 Bft) 97,87 %
01.08.2018 17:48 29,4 C 29,4 C 26,7 C 53 % 1017,3 hPa 0,0 l/m 0 min 0 min 231 W/m 2,3 km/h (1 Bft) 93,62 %
01.08.2018 17:50 29,4 C 29,4 C 26,7 C 52 % 1017,3 hPa 0,0 l/m 0 min 0 min 234 W/m 6,8 km/h (2 Bft) 97,87 %
01.08.2018 17:52 29,4 C 29,4 C 26,7 C 52 % 1017,4 hPa 0,0 l/m 2 min 0 min 291 W/m 6,8 km/h (2 Bft) 95,65 %
01.08.2018 17:54 29,4 C 29,4 C 26,7 C 52 % 1017,3 hPa 0,0 l/m 2 min 0 min 424 W/m 6,8 km/h (2 Bft) 97,87 %
01.08.2018 17:56 29,4 C 29,4 C 27,2 C 52 % 1017,3 hPa 0,0 l/m 2 min 0 min 291 W/m 9,0 km/h (2 Bft) 97,87 %
01.08.2018 17:58 29,4 C 29,4 C 27,2 C 54 % 1017,3 hPa 0,0 l/m 2 min 0 min 288 W/m 4,5 km/h (1 Bft) 97,56 %
01.08.2018 18:00 29,3 C 29,4 C 27,2 C 53 % 1017,3 hPa 0,0 l/m 2 min 0 min 340 W/m 4,5 km/h (1 Bft) 100,00 %
01.08.2018 18:02 29,3 C 30,0 C 27,2 C 53 % 1017,2 hPa 0,0 l/m 2 min 0 min 406 W/m 4,5 km/h (1 Bft) 98,00 %
01.08.2018 18:04 29,3 C 30,0 C 27,2 C 53 % 1017,2 hPa 0,0 l/m 2 min 0 min 527 W/m 2,3 km/h (1 Bft) 97,87 %
01.08.2018 18:06 29,4 C 30,0 C 27,2 C 52 % 1017,2 hPa 0,0 l/m 2 min 0 min 461 W/m 9,0 km/h (2 Bft) 97,87 %
01.08.2018 18:08 29,4 C 30,0 C 27,2 C 52 % 1017,2 hPa 0,0 l/m 2 min 0 min 252 W/m 2,3 km/h (1 Bft) 100,00 %
01.08.2018 18:10 29,4 C 30,0 C 27,2 C 52 % 1017,1 hPa 0,0 l/m 2 min 0 min 231 W/m 4,5 km/h (1 Bft) 100,00 %
01.08.2018 18:12 29,4 C 29,4 C 26,7 C 53 % 1017,2 hPa 0,0 l/m 2 min 0 min 241 W/m 4,5 km/h (1 Bft) 97,87 %
01.08.2018 18:14 29,4 C 29,4 C 26,7 C 51 % 1017,2 hPa 0,0 l/m 2 min 0 min 253 W/m 6,8 km/h (2 Bft) 98,00 %
01.08.2018 18:16 29,4 C 29,4 C 27,2 C 52 % 1017,2 hPa 0,0 l/m 2 min 0 min 257 W/m 4,5 km/h (1 Bft) 100,00 %
01.08.2018 18:18 29,4 C 29,4 C 27,2 C 53 % 1017,2 hPa 0,0 l/m 2 min 0 min 242 W/m 2,3 km/h (1 Bft) 100,00 %
01.08.2018 18:20 29,4 C 29,4 C 26,7 C 53 % 1017,2 hPa 0,0 l/m 2 min 0 min 234 W/m 9,0 km/h (2 Bft) 100,00 %
01.08.2018 18:22 29,3 C 29,4 C 27,2 C 52 % 1017,2 hPa 0,0 l/m 2 min 0 min 255 W/m 6,8 km/h (2 Bft) 97,87 %
01.08.2018 18:24 29,3 C 28,9 C 27,2 C 53 % 1017,1 hPa 0,0 l/m 2 min 0 min 227 W/m 4,5 km/h (1 Bft) 100,00 %
01.08.2018 18:26 29,3 C 29,4 C 27,2 C 53 % 1017,2 hPa 0,0 l/m 2 min 0 min 243 W/m 4,5 km/h (1 Bft) 97,83 %
01.08.2018 18:28 29,3 C 30,0 C 27,2 C 52 % 1017,1 hPa 0,0 l/m 2 min 0 min 476 W/m 6,8 km/h (2 Bft) 100,00 %
01.08.2018 18:30 29,3 C 30,0 C 27,2 C 53 % 1017,1 hPa 0,0 l/m 2 min 0 min 533 W/m 6,8 km/h (2 Bft) 97,87 %
01.08.2018 18:32 29,3 C 30,6 C 27,8 C 53 % 1017,1 hPa 0,0 l/m 2 min 0 min 484 W/m 4,5 km/h (1 Bft) 95,74 %
01.08.2018 18:34 29,3 C 30,6 C 27,8 C 51 % 1017,1 hPa 0,0 l/m 2 min 0 min 496 W/m 2,3 km/h (1 Bft) 100,00 %
01.08.2018 18:36 29,4 C 30,6 C 27,8 C 54 % 1017,1 hPa 0,0 l/m 2 min 0 min 493 W/m 2,3 km/h (1 Bft) 98,00 %
01.08.2018 18:38 29,4 C 30,6 C 27,8 C 52 % 1017,2 hPa 0,0 l/m 2 min 0 min 492 W/m 4,5 km/h (1 Bft) 100,00 %
01.08.2018 18:40 29,4 C 30,6 C 27,8 C 52 % 1017,1 hPa 0,0 l/m 2 min 0 min 457 W/m 6,8 km/h (2 Bft) 97,92 %
01.08.2018 18:42 29,5 C 30,6 C 27,8 C 52 % 1017,1 hPa 0,0 l/m 2 min 0 min 400 W/m 4,5 km/h (1 Bft) 97,87 %
01.08.2018 18:44 29,5 C 30,0 C 27,8 C 52 % 1017,0 hPa 0,0 l/m 2 min 0 min 359 W/m 9,0 km/h (2 Bft) 97,87 %
01.08.2018 18:46 29,5 C 30,0 C 27,8 C 52 % 1017,0 hPa 0,0 l/m 2 min 0 min 332 W/m 4,5 km/h (1 Bft) 100,00 %
01.08.2018 18:48 29,6 C 30,0 C 27,2 C 53 % 1017,0 hPa 0,0 l/m 2 min 0 min 271 W/m 2,3 km/h (1 Bft) 100,00 %
01.08.2018 18:50 29,6 C 29,4 C 27,2 C 51 % 1017,1 hPa 0,0 l/m 2 min 0 min 238 W/m 6,8 km/h (2 Bft) 97,83 %
01.08.2018 18:52 29,6 C 29,4 C 27,2 C 51 % 1017,0 hPa 0,0 l/m 2 min 0 min 221 W/m 6,8 km/h (2 Bft) 97,87 %
01.08.2018 18:54 29,6 C 29,4 C 27,2 C 51 % 1017,0 hPa 0,0 l/m 2 min 0 min 207 W/m 4,5 km/h (1 Bft) 97,87 %
01.08.2018 18:56 29,6 C 29,4 C 26,7 C 50 % 1016,9 hPa 0,0 l/m 2 min 0 min 283 W/m 11,3 km/h (2 Bft) 97,87 %
01.08.2018 18:58 29,6 C 29,4 C 27,2 C 50 % 1017,0 hPa 0,0 l/m 2 min 0 min 249 W/m 6,8 km/h (2 Bft) 97,87 %
01.08.2018 19:00 29,6 C 28,9 C 27,2 C 50 % 1017,0 hPa 0,0 l/m 2 min 0 min 222 W/m 11,3 km/h (2 Bft) 97,87 %
01.08.2018 19:02 29,6 C 28,9 C 26,7 C 51 % 1017,0 hPa 0,0 l/m 2 min 0 min 220 W/m 6,8 km/h (2 Bft) 97,83 %
01.08.2018 19:04 29,6 C 28,9 C 26,7 C 51 % 1016,9 hPa 0,0 l/m 2 min 0 min 181 W/m 4,5 km/h (1 Bft) 97,87 %
01.08.2018 19:06 29,6 C 28,9 C 26,1 C 52 % 1017,0 hPa 0,0 l/m 2 min 0 min 159 W/m 2,3 km/h (1 Bft) 97,62 %
01.08.2018 19:08 29,6 C 28,9 C 26,7 C 50 % 1017,0 hPa 0,0 l/m 0 min 0 min 140 W/m 4,5 km/h (1 Bft) 97,83 %
01.08.2018 19:10 29,6 C 28,9 C 26,1 C 52 % 1017,0 hPa 0,0 l/m 0 min 0 min 148 W/m 2,3 km/h (1 Bft) 97,87 %
01.08.2018 19:12 29,6 C 28,9 C 26,1 C 53 % 1017,0 hPa 0,0 l/m 2 min 0 min 170 W/m 4,5 km/h (1 Bft) 97,87 %
01.08.2018 19:14 29,5 C 28,9 C 26,1 C 52 % 1017,0 hPa 0,0 l/m 2 min 0 min 196 W/m 6,8 km/h (2 Bft) 96,00 %
01.08.2018 19:16 29,5 C 28,9 C 26,1 C 52 % 1017,0 hPa 0,0 l/m 2 min 0 min 169 W/m 4,5 km/h (1 Bft) 97,96 %
01.08.2018 19:18 29,4 C 28,9 C 26,1 C 52 % 1017,0 hPa 0,0 l/m 2 min 0 min 157 W/m 6,8 km/h (2 Bft) 97,87 %
01.08.2018 19:20 29,4 C 28,9 C 26,1 C 51 % 1017,0 hPa 0,0 l/m 2 min 0 min 151 W/m 4,5 km/h (1 Bft) 97,87 %
01.08.2018 19:22 29,4 C 28,9 C 26,1 C 52 % 1017,0 hPa 0,0 l/m 2 min 0 min 152 W/m 4,5 km/h (1 Bft) 95,74 %
01.08.2018 19:24 29,4 C 28,9 C 26,1 C 52 % 1017,0 hPa 0,0 l/m 2 min 0 min 164 W/m 4,5 km/h (1 Bft) 97,87 %
01.08.2018 19:26 29,4 C 28,9 C 26,1 C 52 % 1017,0 hPa 0,0 l/m 2 min 0 min 170 W/m 4,5 km/h (1 Bft) 95,24 %
01.08.2018 19:28 29,4 C 28,9 C 26,1 C 52 % 1017,0 hPa 0,0 l/m 2 min 0 min 167 W/m 2,3 km/h (1 Bft) 93,62 %
01.08.2018 19:30 29,3 C 28,9 C 26,1 C 52 % 1017,0 hPa 0,0 l/m 2 min 0 min 162 W/m 2,3 km/h (1 Bft) 95,65 %
01.08.2018 19:32 29,3 C 28,9 C 26,1 C 52 % 1017,0 hPa 0,0 l/m 2 min 0 min 157 W/m 4,5 km/h (1 Bft) 95,83 %
01.08.2018 19:34 29,3 C 28,9 C 25,6 C 54 % 1017,1 hPa 0,0 l/m 2 min 0 min 150 W/m 2,3 km/h (1 Bft) 95,74 %
01.08.2018 19:36 29,3 C 28,9 C 25,6 C 54 % 1017,0 hPa 0,0 l/m 2 min 0 min 144 W/m 6,8 km/h (2 Bft) 96,00 %
01.08.2018 19:38 29,3 C 28,9 C 25,6 C 53 % 1017,0 hPa 0,0 l/m 2 min 0 min 139 W/m 4,5 km/h (1 Bft) 95,74 %
01.08.2018 19:40 29,3 C 28,3 C 25,6 C 55 % 1017,0 hPa 0,0 l/m 2 min 0 min 134 W/m 2,3 km/h (1 Bft) 95,74 %
01.08.2018 19:42 29,2 C 28,3 C 25,6 C 54 % 1017,0 hPa 0,0 l/m 2 min 0 min 133 W/m 4,5 km/h (1 Bft) 95,65 %
01.08.2018 19:44 29,2 C 28,3 C 25,6 C 53 % 1017,0 hPa 0,0 l/m 2 min 0 min 135 W/m 2,3 km/h (1 Bft) 91,49 %
01.08.2018 19:46 29,2 C 28,3 C 25,6 C 52 % 1017,0 hPa 0,0 l/m 2 min 0 min 134 W/m 4,5 km/h (1 Bft) 95,74 %
01.08.2018 19:48 29,1 C 28,3 C 25,6 C 53 % 1017,0 hPa 0,0 l/m 2 min 0 min 133 W/m 4,5 km/h (1 Bft) 95,74 %
01.08.2018 19:50 29,1 C 28,3 C 25,6 C 53 % 1017,1 hPa 0,0 l/m 2 min 0 min 130 W/m 4,5 km/h (1 Bft) 95,74 %
01.08.2018 19:52 29,1 C 28,3 C 25,6 C 53 % 1017,1 hPa 0,0 l/m 2 min 0 min 126 W/m 4,5 km/h (1 Bft) 95,74 %
01.08.2018 19:54 29,0 C 28,3 C 26,1 C 53 % 1017,0 hPa 0,0 l/m 2 min 0 min 120 W/m 4,5 km/h (1 Bft) 97,87 %
01.08.2018 19:56 29,0 C 28,3 C 26,1 C 53 % 1017,1 hPa 0,0 l/m 2 min 0 min 111 W/m 4,5 km/h (1 Bft) 95,74 %
01.08.2018 19:58 28,9 C 28,3 C 25,6 C 53 % 1017,1 hPa 0,0 l/m 2 min 0 min 102 W/m 2,3 km/h (1 Bft) 95,74 %
01.08.2018 20:00 28,9 C 27,8 C 26,1 C 53 % 1017,1 hPa 0,0 l/m 2 min 0 min 96 W/m 15,8 km/h (3 Bft) 93,62 %
01.08.2018 20:02 28,9 C 27,8 C 26,1 C 52 % 1017,2 hPa 0,0 l/m 0 min 0 min 87 W/m 11,3 km/h (2 Bft) 95,35 %
01.08.2018 20:04 28,8 C 27,8 C 26,1 C 51 % 1017,2 hPa 0,0 l/m 0 min 0 min 80 W/m 6,8 km/h (2 Bft) 95,74 %
01.08.2018 20:06 28,8 C 27,8 C 26,1 C 52 % 1017,1 hPa 0,0 l/m 0 min 0 min 76 W/m 2,3 km/h (1 Bft) 95,92 %
01.08.2018 20:08 28,8 C 27,8 C 26,1 C 52 % 1017,1 hPa 0,0 l/m 0 min 0 min 72 W/m 6,8 km/h (2 Bft) 97,92 %
01.08.2018 20:10 28,7 C 27,8 C 26,1 C 50 % 1017,1 hPa 0,0 l/m 0 min 0 min 69 W/m 15,8 km/h (3 Bft) 97,14 %
01.08.2018 20:12 28,7 C 27,8 C 26,1 C 51 % 1017,1 hPa 0,0 l/m 0 min 0 min 63 W/m 13,5 km/h (3 Bft) 96,23 %
01.08.2018 20:14 28,7 C 27,2 C 26,1 C 51 % 1017,1 hPa 0,0 l/m 0 min 0 min 60 W/m 4,5 km/h (1 Bft) 100,00 %
01.08.2018 20:16 28,6 C 27,2 C 26,1 C 51 % 1017,2 hPa 0,0 l/m 0 min 0 min 55 W/m 4,5 km/h (1 Bft) 100,00 %
01.08.2018 20:18 28,6 C 27,2 C 25,6 C 51 % 1017,2 hPa 0,0 l/m 0 min 0 min 50 W/m 4,5 km/h (1 Bft) 100,00 %
01.08.2018 20:20 28,6 C 27,2 C 25,6 C 52 % 1017,2 hPa 0,0 l/m 0 min 0 min 47 W/m 11,3 km/h (2 Bft) 95,74 %
01.08.2018 20:22 28,5 C 27,2 C 25,6 C 51 % 1017,3 hPa 0,0 l/m 0 min 0 min 44 W/m 6,8 km/h (2 Bft) 97,87 %
01.08.2018 20:24 28,5 C 26,7 C 25,6 C 51 % 1017,3 hPa 0,0 l/m 0 min 0 min 41 W/m 6,8 km/h (2 Bft) 97,87 %
01.08.2018 20:26 28,4 C 26,7 C 25,6 C 51 % 1017,3 hPa 0,0 l/m 0 min 0 min 39 W/m 4,5 km/h (1 Bft) 95,74 %
01.08.2018 20:28 28,4 C 27,2 C 25,6 C 50 % 1017,3 hPa 0,0 l/m 0 min 0 min 37 W/m 11,3 km/h (2 Bft) 95,74 %
01.08.2018 20:30 28,3 C 26,7 C 25,6 C 51 % 1017,3 hPa 0,0 l/m 0 min 0 min 35 W/m 6,8 km/h (2 Bft) 95,92 %
01.08.2018 20:32 28,3 C 26,7 C 25,6 C 51 % 1017,3 hPa 0,0 l/m 0 min 0 min 33 W/m 6,8 km/h (2 Bft) 97,96 %
01.08.2018 20:34 28,2 C 26,7 C 25,6 C 51 % 1017,3 hPa 0,0 l/m 0 min 0 min 32 W/m 2,3 km/h (1 Bft) 97,87 %
01.08.2018 20:36 28,2 C 26,7 C 25,6 C 51 % 1017,3 hPa 0,0 l/m 0 min 0 min 31 W/m 6,8 km/h (2 Bft) 100,00 %
01.08.2018 20:38 28,1 C 26,7 C 25,6 C 51 % 1017,3 hPa 0,0 l/m 0 min 0 min 29 W/m 6,8 km/h (2 Bft) 95,74 %
01.08.2018 20:40 28,1 C 26,7 C 25,6 C 51 % 1017,3 hPa 0,0 l/m 0 min 0 min 28 W/m 11,3 km/h (2 Bft) 97,83 %
01.08.2018 20:42 28,0 C 26,1 C 25,6 C 51 % 1017,3 hPa 0,0 l/m 0 min 0 min 26 W/m 4,5 km/h (1 Bft) 97,87 %
01.08.2018 20:44 27,9 C 26,1 C 25,6 C 52 % 1017,3 hPa 0,0 l/m 0 min 0 min 25 W/m 4,5 km/h (1 Bft) 97,87 %
01.08.2018 20:46 27,9 C 26,1 C 25,6 C 52 % 1017,4 hPa 0,0 l/m 0 min 0 min 24 W/m 6,8 km/h (2 Bft) 97,87 %
01.08.2018 20:48 27,9 C 26,1 C 25,0 C 52 % 1017,4 hPa 0,0 l/m 0 min 0 min 23 W/m 6,8 km/h (2 Bft) 97,87 %
01.08.2018 20:50 27,8 C 26,1 C 25,0 C 51 % 1017,5 hPa 0,0 l/m 0 min 0 min 21 W/m 9,0 km/h (2 Bft) 98,28 %
01.08.2018 20:52 27,8 C 26,1 C 25,0 C 51 % 1017,5 hPa 0,0 l/m 0 min 0 min 21 W/m 6,8 km/h (2 Bft) 97,87 %
01.08.2018 20:54 27,7 C 26,1 C 25,0 C 52 % 1017,5 hPa 0,0 l/m 0 min 0 min 19 W/m 9,0 km/h (2 Bft) 97,14 %
01.08.2018 20:56 27,7 C 26,1 C 25,0 C 52 % 1017,5 hPa 0,0 l/m 0 min 0 min 18 W/m 4,5 km/h (1 Bft) 97,87 %
01.08.2018 20:58 27,7 C 26,1 C 25,0 C 53 % 1017,6 hPa 0,0 l/m 0 min 0 min 17 W/m 2,3 km/h (1 Bft) 97,87 %
01.08.2018 21:00 27,6 C 25,6 C 25,0 C 53 % 1017,6 hPa 0,0 l/m 0 min 0 min 16 W/m 4,5 km/h (1 Bft) 97,87 %
01.08.2018 21:02 27,6 C 25,6 C 24,4 C 53 % 1017,7 hPa 0,0 l/m 0 min 0 min 15 W/m 4,5 km/h (1 Bft) 97,96 %
01.08.2018 21:04 27,4 C 25,6 C 24,4 C 53 % 1017,7 hPa 0,0 l/m 0 min 0 min 14 W/m 6,8 km/h (2 Bft) 97,87 %
01.08.2018 21:06 27,4 C 25,6 C 24,4 C 53 % 1017,7 hPa 0,0 l/m 0 min 0 min 12 W/m 6,8 km/h (2 Bft) 97,87 %
01.08.2018 21:08 27,3 C 25,6 C 24,4 C 54 % 1017,8 hPa 0,0 l/m 0 min 0 min 12 W/m 2,3 km/h (1 Bft) 97,87 %
01.08.2018 21:10 27,3 C 25,0 C 24,4 C 54 % 1017,8 hPa 0,0 l/m 0 min 0 min 10 W/m 4,5 km/h (1 Bft) 96,36 %
01.08.2018 21:12 27,2 C 25,0 C 24,4 C 53 % 1017,8 hPa 0,0 l/m 0 min 0 min 7 W/m 4,5 km/h (1 Bft) 96,00 %
01.08.2018 21:14 27,2 C 25,0 C 24,4 C 54 % 1017,9 hPa 0,0 l/m 0 min 0 min 7 W/m 6,8 km/h (2 Bft) 100,00 %
01.08.2018 21:16 27,1 C 25,0 C 24,4 C 54 % 1017,9 hPa 0,0 l/m 0 min 0 min 6 W/m 2,3 km/h (1 Bft) 100,00 %
01.08.2018 21:18 27,1 C 25,0 C 24,4 C 54 % 1017,9 hPa 0,0 l/m 0 min 0 min 5 W/m 4,5 km/h (1 Bft) 97,87 %
01.08.2018 21:20 27,0 C 25,0 C 24,4 C 53 % 1017,9 hPa 0,0 l/m 0 min 0 min 5 W/m 13,5 km/h (3 Bft) 100,00 %
01.08.2018 21:22 26,9 C 25,0 C 23,9 C 54 % 1017,9 hPa 0,0 l/m 0 min 0 min 2 W/m 4,5 km/h (1 Bft) 100,00 %
01.08.2018 21:24 26,9 C 25,0 C 23,9 C 55 % 1018,0 hPa 0,0 l/m 0 min 0 min 0 W/m 4,5 km/h (1 Bft) 100,00 %
01.08.2018 21:26 26,8 C 25,0 C 23,9 C 54 % 1018,0 hPa 0,0 l/m 0 min 0 min 0 W/m 6,8 km/h (2 Bft) 100,00 %
01.08.2018 21:28 26,8 C 25,0 C 23,9 C 54 % 1018,0 hPa 0,0 l/m 0 min 0 min 0 W/m 4,5 km/h (1 Bft) 97,87 %
01.08.2018 21:30 26,7 C 25,0 C 23,9 C 55 % 1018,0 hPa 0,0 l/m 0 min 0 min 0 W/m 4,5 km/h (1 Bft) 100,00 %
01.08.2018 21:32 26,6 C 25,0 C 23,9 C 56 % 1018,0 hPa 0,0 l/m 0 min 0 min 0 W/m 6,8 km/h (2 Bft) 97,96 %
01.08.2018 21:34 26,6 C 24,4 C 23,9 C 55 % 1018,2 hPa 0,0 l/m 0 min 0 min 0 W/m 2,3 km/h (1 Bft) 100,00 %
01.08.2018 21:36 26,6 C 24,4 C 23,9 C 56 % 1018,2 hPa 0,0 l/m 0 min 0 min 0 W/m 2,3 km/h (1 Bft) 100,00 %
01.08.2018 21:38 26,5 C 24,4 C 23,3 C 56 % 1018,3 hPa 0,0 l/m 0 min 0 min 0 W/m 2,3 km/h (1 Bft) 100,00 %
01.08.2018 21:40 26,4 C 24,4 C 23,3 C 56 % 1018,2 hPa 0,0 l/m 0 min 0 min 0 W/m 4,5 km/h (1 Bft) 100,00 %
01.08.2018 21:42 26,4 C 24,4 C 23,3 C 56 % 1018,2 hPa 0,0 l/m 0 min 0 min 0 W/m 4,5 km/h (1 Bft) 100,00 %
01.08.2018 21:44 26,3 C 24,4 C 23,3 C 56 % 1018,3 hPa 0,0 l/m 0 min 0 min 0 W/m 4,5 km/h (1 Bft) 100,00 %
01.08.2018 21:46 26,3 C 24,4 C 23,3 C 56 % 1018,3 hPa 0,0 l/m 0 min 0 min 0 W/m 4,5 km/h (1 Bft) 100,00 %
01.08.2018 21:48 26,2 C 24,4 C 23,9 C 55 % 1018,4 hPa 0,0 l/m 0 min 0 min 0 W/m 6,8 km/h (2 Bft) 100,00 %
01.08.2018 21:50 26,2 C 24,4 C 23,9 C 56 % 1018,4 hPa 0,0 l/m 0 min 0 min 0 W/m 4,5 km/h (1 Bft) 100,00 %
01.08.2018 21:52 26,1 C 24,4 C 23,9 C 56 % 1018,4 hPa 0,0 l/m 0 min 0 min 0 W/m 4,5 km/h (1 Bft) 100,00 %
01.08.2018 21:54 26,1 C 24,4 C 23,9 C 56 % 1018,4 hPa 0,0 l/m 0 min 0 min 0 W/m 9,0 km/h (2 Bft) 100,00 %
01.08.2018 21:56 26,0 C 24,4 C 23,9 C 56 % 1018,4 hPa 0,0 l/m 0 min 0 min 0 W/m 9,0 km/h (2 Bft) 100,00 %
01.08.2018 21:58 25,9 C 24,4 C 23,9 C 57 % 1018,4 hPa 0,0 l/m 0 min 0 min 0 W/m 6,8 km/h (2 Bft) 97,83 %
01.08.2018 22:00 25,9 C 24,4 C 23,3 C 56 % 1018,4 hPa 0,0 l/m 0 min 0 min 0 W/m 4,5 km/h (1 Bft) 97,87 %
01.08.2018 22:02 25,8 C 24,4 C 23,3 C 56 % 1018,5 hPa 0,0 l/m 0 min 0 min 0 W/m 4,5 km/h (1 Bft) 96,23 %
01.08.2018 22:04 25,8 C 24,4 C 23,3 C 56 % 1018,5 hPa 0,0 l/m 0 min 0 min 0 W/m 9,0 km/h (2 Bft) 97,87 %
01.08.2018 22:06 25,8 C 24,4 C 23,3 C 57 % 1018,5 hPa 0,0 l/m 0 min 0 min 0 W/m 9,0 km/h (2 Bft) 97,87 %
01.08.2018 22:08 25,7 C 23,9 C 23,3 C 57 % 1018,5 hPa 0,0 l/m 0 min 0 min 0 W/m 15,8 km/h (3 Bft) 97,87 %
01.08.2018 22:10 25,7 C 23,9 C 23,3 C 57 % 1018,5 hPa 0,0 l/m 0 min 0 min 0 W/m 4,5 km/h (1 Bft) 95,74 %
01.08.2018 22:12 25,7 C 23,9 C 23,3 C 57 % 1018,5 hPa 0,0 l/m 0 min 0 min 0 W/m 6,8 km/h (2 Bft) 97,87 %
01.08.2018 22:14 25,6 C 23,9 C 23,3 C 57 % 1018,6 hPa 0,0 l/m 0 min 0 min 0 W/m 4,5 km/h (1 Bft) 97,37 %
01.08.2018 22:16 25,6 C 23,9 C 23,3 C 58 % 1018,6 hPa 0,0 l/m 0 min 0 min 0 W/m 6,8 km/h (2 Bft) 95,65 %
01.08.2018 22:18 25,5 C 23,9 C 23,3 C 57 % 1018,5 hPa 0,0 l/m 0 min 0 min 0 W/m 9,0 km/h (2 Bft) 97,87 %
01.08.2018 22:20 25,5 C 23,9 C 23,3 C 57 % 1018,5 hPa 0,0 l/m 0 min 0 min 0 W/m 4,5 km/h (1 Bft) 96,61 %
01.08.2018 22:22 25,4 C 23,9 C 23,3 C 57 % 1018,5 hPa 0,0 l/m 0 min 0 min 0 W/m 11,3 km/h (2 Bft) 97,14 %
01.08.2018 22:24 25,4 C 23,9 C 23,3 C 58 % 1018,5 hPa 0,0 l/m 0 min 0 min 0 W/m 11,3 km/h (2 Bft) 95,74 %
01.08.2018 22:26 25,4 C 23,9 C 23,3 C 58 % 1018,4 hPa 0,0 l/m 0 min 0 min 0 W/m 9,0 km/h (2 Bft) 93,62 %
01.08.2018 22:28 25,3 C 23,9 C 23,3 C 58 % 1018,4 hPa 0,0 l/m 0 min 0 min 0 W/m 6,8 km/h (2 Bft) 97,83 %
01.08.2018 22:30 25,3 C 23,9 C 23,3 C 58 % 1018,4 hPa 0,0 l/m 0 min 0 min 0 W/m 6,8 km/h (2 Bft) 98,00 %
01.08.2018 22:32 25,3 C 23,9 C 23,3 C 58 % 1018,5 hPa 0,0 l/m 0 min 0 min 0 W/m 4,5 km/h (1 Bft) 91,49 %
01.08.2018 22:34 25,2 C 23,9 C 23,3 C 58 % 1018,4 hPa 0,0 l/m 0 min 0 min 0 W/m 2,3 km/h (1 Bft) 95,65 %
01.08.2018 22:36 25,2 C 23,3 C 22,8 C 59 % 1018,4 hPa 0,0 l/m 0 min 0 min 0 W/m 4,5 km/h (1 Bft) 97,87 %
01.08.2018 22:38 25,2 C 23,3 C 22,8 C 59 % 1018,4 hPa 0,0 l/m 0 min 0 min 0 W/m 4,5 km/h (1 Bft) 93,62 %
01.08.2018 22:40 25,2 C 23,3 C 22,8 C 58 % 1018,5 hPa 0,0 l/m 0 min 0 min 0 W/m 4,5 km/h (1 Bft) 95,74 %
01.08.2018 22:42 25,1 C 23,3 C 22,8 C 59 % 1018,5 hPa 0,0 l/m 0 min 0 min 0 W/m 2,3 km/h (1 Bft) 97,87 %
01.08.2018 22:44 25,1 C 23,3 C 22,8 C 59 % 1018,6 hPa 0,0 l/m 0 min 0 min 0 W/m 2,3 km/h (1 Bft) 95,74 %
01.08.2018 22:46 25,1 C 23,3 C 22,8 C 59 % 1018,6 hPa 0,0 l/m 0 min 0 min 0 W/m 2,3 km/h (1 Bft) 97,83 %
01.08.2018 22:48 25,1 C 22,8 C 22,8 C 59 % 1018,6 hPa 0,0 l/m 0 min 0 min 0 W/m 4,5 km/h (1 Bft) 97,87 %
01.08.2018 22:50 25,0 C 22,8 C 22,2 C 60 % 1018,6 hPa 0,0 l/m 0 min 0 min 0 W/m 2,3 km/h (1 Bft) 95,74 %
01.08.2018 22:52 24,9 C 22,8 C 22,2 C 60 % 1018,6 hPa 0,0 l/m 0 min 0 min 0 W/m 0,0 km/h (0 Bft) 97,87 %
01.08.2018 22:54 24,9 C 22,8 C 22,2 C 60 % 1018,6 hPa 0,0 l/m 0 min 0 min 0 W/m 0,0 km/h (0 Bft) 95,74 %
01.08.2018 22:56 24,8 C 22,8 C 22,2 C 60 % 1018,6 hPa 0,0 l/m 0 min 0 min 0 W/m 0,0 km/h (0 Bft) 97,87 %
01.08.2018 22:58 24,8 C 22,8 C 22,2 C 60 % 1018,6 hPa 0,0 l/m 0 min 0 min 0 W/m 0,0 km/h (0 Bft) 97,83 %
01.08.2018 23:00 24,8 C 22,8 C 21,7 C 60 % 1018,6 hPa 0,0 l/m 0 min 0 min 0 W/m 0,0 km/h (0 Bft) 97,87 %
01.08.2018 23:02 24,7 C 22,2 C 21,7 C 61 % 1018,6 hPa 0,0 l/m 0 min 0 min 0 W/m 0,0 km/h (0 Bft) 97,87 %
01.08.2018 23:04 24,7 C 22,2 C 21,7 C 62 % 1018,7 hPa 0,0 l/m 0 min 0 min 0 W/m 0,0 km/h (0 Bft) 95,74 %
01.08.2018 23:06 24,6 C 22,2 C 21,7 C 62 % 1018,7 hPa 0,0 l/m 0 min 0 min 0 W/m 0,0 km/h (0 Bft) 98,11 %
01.08.2018 23:08 24,5 C 22,2 C 21,7 C 61 % 1018,7 hPa 0,0 l/m 0 min 0 min 0 W/m 0,0 km/h (0 Bft) 97,87 %
01.08.2018 23:10 24,4 C 22,2 C 21,7 C 61 % 1018,7 hPa 0,0 l/m 0 min 0 min 0 W/m 0,0 km/h (0 Bft) 97,87 %
01.08.2018 23:12 24,4 C 22,2 C 21,7 C 61 % 1018,7 hPa 0,0 l/m 0 min 0 min 0 W/m 4,5 km/h (1 Bft) 92,11 %
01.08.2018 23:14 24,3 C 22,2 C 21,7 C 61 % 1018,7 hPa 0,0 l/m 0 min 0 min 0 W/m 4,5 km/h (1 Bft) 97,83 %
01.08.2018 23:16 24,3 C 22,2 C 21,7 C 61 % 1018,8 hPa 0,0 l/m 0 min 0 min 0 W/m 2,3 km/h (1 Bft) 97,87 %
01.08.2018 23:18 24,2 C 22,2 C 21,7 C 61 % 1018,7 hPa 0,0 l/m 0 min 0 min 0 W/m 0,0 km/h (0 Bft) 95,74 %
01.08.2018 23:20 24,2 C 22,2 C 21,7 C 62 % 1018,7 hPa 0,0 l/m 0 min 0 min 0 W/m 0,0 km/h (0 Bft) 96,61 %
01.08.2018 23:22 24,1 C 22,2 C 21,7 C 62 % 1018,8 hPa 0,0 l/m 0 min 0 min 0 W/m 4,5 km/h (1 Bft) 97,30 %
01.08.2018 23:24 24,1 C 22,2 C 21,7 C 62 % 1018,8 hPa 0,0 l/m 0 min 0 min 0 W/m 2,3 km/h (1 Bft) 97,87 %
01.08.2018 23:26 24,0 C 22,2 C 21,7 C 62 % 1018,8 hPa 0,0 l/m 0 min 0 min 0 W/m 0,0 km/h (0 Bft) 97,87 %
01.08.2018 23:28 23,9 C 22,2 C 21,7 C 63 % 1018,8 hPa 0,0 l/m 0 min 0 min 0 W/m 4,5 km/h (1 Bft) 97,87 %
01.08.2018 23:30 23,9 C 22,2 C 21,7 C 62 % 1018,7 hPa 0,0 l/m 0 min 0 min 0 W/m 4,5 km/h (1 Bft) 97,87 %
01.08.2018 23:32 23,9 C 22,2 C 21,7 C 62 % 1018,7 hPa 0,0 l/m 0 min 0 min 0 W/m 2,3 km/h (1 Bft) 97,83 %
01.08.2018 23:34 23,8 C 21,7 C 21,1 C 63 % 1018,7 hPa 0,0 l/m 0 min 0 min 0 W/m 0,0 km/h (0 Bft) 100,00 %
01.08.2018 23:36 23,8 C 21,7 C 21,1 C 63 % 1018,7 hPa 0,0 l/m 0 min 0 min 0 W/m 2,3 km/h (1 Bft) 100,00 %
01.08.2018 23:38 23,7 C 21,7 C 21,1 C 63 % 1018,8 hPa 0,0 l/m 0 min 0 min 0 W/m 2,3 km/h (1 Bft) 97,87 %
01.08.2018 23:40 23,7 C 21,7 C 21,1 C 63 % 1018,8 hPa 0,0 l/m 0 min 0 min 0 W/m 0,0 km/h (0 Bft) 97,87 %
01.08.2018 23:42 23,6 C 21,7 C 21,1 C 63 % 1018,8 hPa 0,0 l/m 0 min 0 min 0 W/m 0,0 km/h (0 Bft) 97,87 %
01.08.2018 23:44 23,6 C 21,7 C 21,1 C 64 % 1018,8 hPa 0,0 l/m 0 min 0 min 0 W/m 2,3 km/h (1 Bft) 97,14 %
01.08.2018 23:46 23,5 C 21,7 C 21,1 C 64 % 1018,8 hPa 0,0 l/m 0 min 0 min 0 W/m 4,5 km/h (1 Bft) 95,83 %
01.08.2018 23:48 23,4 C 21,7 C 21,7 C 64 % 1018,7 hPa 0,0 l/m 0 min 0 min 0 W/m 4,5 km/h (1 Bft) 97,83 %
01.08.2018 23:50 23,4 C 21,7 C 21,7 C 64 % 1018,7 hPa 0,0 l/m 0 min 0 min 0 W/m 4,5 km/h (1 Bft) 98,00 %
01.08.2018 23:52 23,3 C 21,7 C 21,7 C 64 % 1018,8 hPa 0,0 l/m 0 min 0 min 0 W/m 4,5 km/h (1 Bft) 97,87 %
01.08.2018 23:54 23,3 C 21,7 C 21,7 C 64 % 1018,8 hPa 0,0 l/m 0 min 0 min 0 W/m 4,5 km/h (1 Bft) 95,74 %
01.08.2018 23:56 23,2 C 21,7 C 21,7 C 64 % 1018,8 hPa 0,0 l/m 0 min 0 min 0 W/m 4,5 km/h (1 Bft) 97,83 %
01.08.2018 23:58 23,2 C 21,7 C 21,7 C 64 % 1018,8 hPa 0,0 l/m 0 min 0 min 0 W/m 4,5 km/h (1 Bft) 97,87 %
_ Min-Zeit 06:56 05:44 05:54 17:14 18:56 - - - - 02:32 03:16
Minimum _ 17,3 C 16,1 C 16,7 C 50 % 1016,9 hPa - - - - 0,0 km/h (0 Bft) 91,30 %
_ Max-Zeit 18:48 10:56 18:32 07:36 12:26 13:46 08:48 00:00 10:52 20:00 01:26
Maximum _ 29,6 C 33,9 C 27,8 C 87 % 1019,0 hPa 0,2 l/m 2 min 0 min 738 W/m 15,8 km/h
W-SW (3 Bft)
100,00 %
Durchschnitt _ 24,0 C 23,7 C 22,2 C 64 % 1018,1 hPa #0,2 l/m #9:02 h #0 min. 297 W/m 4,8 km/h (1 Bft) 97,45 %
© 2018 W. Hausmann